Provisional Data: Susquehanna River near Binghamton, NY


Please select a monitoring station.
Please select start date.
Please select start date.

Toggle Unit: C/F Toggle Unit: C/F
Sample Time Temperature (C) Temperature (F) Specific Conductivity (mS/cm) pH   Turbidity (NTU+) DO (mg/L)
4/18/2023 12:00:00 AM 5.7989 7.1131
4/18/2023 12:15:00 AM 5.7907 7.0552
4/18/2023 12:30:00 AM 5.7843 8.0978
4/18/2023 12:45:00 AM 5.7788 8.2467
4/18/2023 1:00:00 AM 5.772 7.6922
4/18/2023 1:15:00 AM 5.7647 7.1676
4/18/2023 1:30:00 AM 5.7594 7.7254
4/18/2023 1:45:00 AM 5.754 8.93
4/18/2023 2:00:00 AM 5.7474 8.3539
4/18/2023 2:15:00 AM 5.7435 7.0892
4/18/2023 2:30:00 AM 5.7387 6.38
4/18/2023 2:45:00 AM 5.74 6
4/18/2023 3:00:00 AM 5.7279 6.6357
4/18/2023 3:15:00 AM 5.7248 6.1405
4/18/2023 3:30:00 AM 5.721 6.0863
4/18/2023 3:45:00 AM 5.7197 5.8526
4/18/2023 4:00:00 AM 5.7152 5.6665
4/18/2023 4:15:00 AM 5.7105 5.6768
4/18/2023 4:30:00 AM 5.7067 5.5949
4/18/2023 4:45:00 AM 5.7028 5.4064
4/18/2023 5:00:00 AM 5.7013 5.3809
4/18/2023 5:15:00 AM 5.7009 5.3294
4/18/2023 5:30:00 AM 5.6969 5.3433
4/18/2023 5:45:00 AM 5.698 5.3
4/18/2023 6:00:00 AM 5.696 5.2428
4/18/2023 6:15:00 AM 5.6913 5.2353
4/18/2023 6:30:00 AM 5.6908 5.1562
4/18/2023 6:45:00 AM 5.6895 5.3918
4/18/2023 7:00:00 AM 5.6864 5.353
4/18/2023 7:15:00 AM 5.6863 5.5109
4/18/2023 7:30:00 AM 5.6864 5.4162
4/18/2023 7:45:00 AM 5.6862 5.2669
4/18/2023 8:00:00 AM 5.686 5.2418
4/18/2023 8:15:00 AM 5.6862 5.1
4/18/2023 8:30:00 AM 5.6847 5.0812
4/18/2023 8:45:00 AM 5.6882 5
4/18/2023 9:00:00 AM 5.6849 5.0006
4/18/2023 9:15:00 AM 5.6859 4.7667
4/18/2023 9:30:00 AM 5.6861 4.5947
4/18/2023 9:45:00 AM 5.6864 4.629
4/18/2023 10:00:00 AM 5.686 4.4031
4/18/2023 10:15:00 AM 5.6863 4.2769
4/18/2023 10:30:00 AM 5.6862 4.2874
4/18/2023 10:45:00 AM 5.6892 4.2513
4/18/2023 11:00:00 AM 5.6915 4.245
4/18/2023 11:15:00 AM 5.6955 4.1697
4/18/2023 11:30:00 AM 5.6959 4.2914
4/18/2023 11:45:00 AM 5.6938 4.1
4/18/2023 12:00:00 PM 5.7012 4.154
4/18/2023 12:15:00 PM 5.7012 18.9012
4/18/2023 12:30:00 PM 5.7016 12.6287
4/18/2023 12:45:00 PM 5.7043 6.0033
4/18/2023 1:00:00 PM 5.7055 4.7652
4/18/2023 1:15:00 PM 5.7092 4.4065
4/18/2023 1:30:00 PM 5.71 4.285
4/18/2023 1:45:00 PM 5.7125 4.6227
4/18/2023 2:00:00 PM 5.7152 4.4828
4/18/2023 2:15:00 PM 5.7182 4.2881
4/18/2023 2:30:00 PM 5.723 4.4383
4/18/2023 2:45:00 PM 5.7282 4.3584
4/18/2023 3:00:00 PM 5.7336 4.4193
4/18/2023 3:15:00 PM 5.7359 4.1909
4/18/2023 3:30:00 PM 5.74 4.2047
4/18/2023 3:45:00 PM 5.7451 4.1252
4/18/2023 4:00:00 PM 5.7499 4.1163
4/18/2023 4:15:00 PM 5.7539 4.0266
4/18/2023 4:30:00 PM 5.7588 3.9815
4/18/2023 4:45:00 PM 5.763 5.2126
4/18/2023 5:00:00 PM 5.7665 5.2918
4/18/2023 5:15:00 PM 5.7743 4.6471
4/18/2023 5:30:00 PM 5.7798 4.4472
4/18/2023 5:45:00 PM 5.7806 4.4
4/18/2023 6:00:00 PM 5.7927 4.3696
4/18/2023 6:15:00 PM 5.7972 4.1853
4/18/2023 6:30:00 PM 5.8036 4.1969
4/18/2023 6:45:00 PM 5.809 4.1481
4/18/2023 7:00:00 PM 5.8137 4.1297
4/18/2023 7:15:00 PM 5.8167 3.994
4/18/2023 7:30:00 PM 5.8208 3.957
4/18/2023 7:45:00 PM 5.8253 3.9468
4/18/2023 8:00:00 PM 5.8255 3.9762
4/18/2023 8:15:00 PM 5.8256 3.998
4/18/2023 8:30:00 PM 5.8253 4.3007
4/18/2023 8:45:00 PM 5.8226 4.4
4/18/2023 9:00:00 PM 5.8254 4.2602
4/18/2023 9:15:00 PM 5.8227 4.611
4/18/2023 9:30:00 PM 5.82 4.6078
4/18/2023 9:45:00 PM 5.8178 4.6031
4/18/2023 10:00:00 PM 5.8155 4.4897
4/18/2023 10:15:00 PM 5.814 4.843
4/18/2023 10:30:00 PM 5.8107 4.6514
4/18/2023 10:45:00 PM 5.8068 4.3888
4/18/2023 11:00:00 PM 5.8058 4.2517
4/18/2023 11:15:00 PM 5.8011 4.1069
4/18/2023 11:30:00 PM 5.7997 4.2488
4/18/2023 11:45:00 PM 5.796 4.2
4/19/2023 12:00:00 AM 5.7965 4.2251
4/19/2023 12:15:00 AM 5.7956 4.1058
4/19/2023 12:30:00 AM 5.7914 4.1274
4/19/2023 12:45:00 AM 5.7919 4.5309
4/19/2023 1:00:00 AM 5.7901 4.8564
4/19/2023 1:15:00 AM 5.7868 4.8441
4/19/2023 1:30:00 AM 5.7818 5.0194
4/19/2023 1:45:00 AM 5.7777 5.1643
4/19/2023 2:00:00 AM 5.775 5.1958
4/19/2023 2:15:00 AM 5.7723 4.684
4/19/2023 2:30:00 AM 5.7677 5.0823
4/19/2023 2:45:00 AM 5.7694 5.5
4/19/2023 3:00:00 AM 5.7626 4.4941
4/19/2023 3:15:00 AM 5.7616 4.2929
4/19/2023 3:30:00 AM 5.7583 4.3083
4/19/2023 3:45:00 AM 5.7576 6.1937
4/19/2023 4:00:00 AM 5.7532 7.2898
4/19/2023 4:15:00 AM 5.7535 6.4269
4/19/2023 4:30:00 AM 5.7541 4.688
4/19/2023 4:45:00 AM 5.7534 4.4372
4/19/2023 5:00:00 AM 5.7533 4.4542
4/19/2023 5:15:00 AM 5.7524 4.2402
4/19/2023 5:30:00 AM 5.7492 5.0195
4/19/2023 5:45:00 AM 5.7456 5.1
4/19/2023 6:00:00 AM 5.7484 4.3112
4/19/2023 6:15:00 AM 5.7484 4.2939
4/19/2023 6:30:00 AM 5.7463 6.4007
4/19/2023 6:45:00 AM 5.7436 6.6658
4/19/2023 7:00:00 AM 5.7437 5.4434
4/19/2023 7:15:00 AM 5.744 5.0058
4/19/2023 7:30:00 AM 5.7434 4.9228
4/19/2023 7:45:00 AM 5.7437 4.7599
4/19/2023 8:00:00 AM 5.7435 4.6518
4/19/2023 8:15:00 AM 5.7431 4.422
4/19/2023 8:30:00 AM 5.7423 4.3456
4/19/2023 8:45:00 AM 5.74 4.2
4/19/2023 9:00:00 AM 5.7393 4.6273
4/19/2023 9:15:00 AM 5.7393 3.9839
4/19/2023 9:30:00 AM 5.7391 4.0495
4/19/2023 9:45:00 AM 5.7393 4.1628
4/19/2023 10:00:00 AM 5.7393 4.4008
4/19/2023 10:15:00 AM 5.7394 4.1084
4/19/2023 10:30:00 AM 5.7391 4.0492
4/19/2023 10:45:00 AM 5.7384 4.1786
4/19/2023 11:00:00 AM 5.7384 4.113
4/19/2023 11:15:00 AM 5.7389 4.0621
4/19/2023 11:30:00 AM 5.7386 3.9611
4/19/2023 11:45:00 AM 5.7414 3.9
4/19/2023 12:00:00 PM 5.7387 3.8386
4/19/2023 12:15:00 PM 5.7385 3.7094
4/19/2023 12:30:00 PM 5.7392 3.5898
4/19/2023 12:45:00 PM 5.7383 3.6635
4/19/2023 1:00:00 PM 5.7389 3.6881
4/19/2023 1:15:00 PM 5.7378 3.6199
4/19/2023 1:30:00 PM 5.7346 3.5879
4/19/2023 1:45:00 PM 5.7358 3.5166
4/19/2023 2:00:00 PM 5.7358 3.5607
4/19/2023 2:15:00 PM 5.7376 3.5778
4/19/2023 2:30:00 PM 5.7387 3.333
4/19/2023 2:45:00 PM 5.7405 3.3072
4/19/2023 3:00:00 PM 5.7438 3.3548
4/19/2023 3:15:00 PM 5.7461 3.388
4/19/2023 3:30:00 PM 5.7483 3.4069
4/19/2023 3:45:00 PM 5.7519 3.4151
4/19/2023 4:00:00 PM 5.7543 3.3065
4/19/2023 4:15:00 PM 5.7584 3.3102
4/19/2023 4:30:00 PM 5.7622 3.5737
4/19/2023 4:45:00 PM 5.7665 3.5469
4/19/2023 5:00:00 PM 5.7719 3.5697
4/19/2023 5:15:00 PM 5.778 3.9149
4/19/2023 5:30:00 PM 5.7841 3.7484
4/19/2023 5:45:00 PM 5.7848 3.7995
4/19/2023 6:00:00 PM 5.7972 4.7924
4/19/2023 6:15:00 PM 5.8036 3.9429
4/19/2023 6:30:00 PM 5.8133 4.0268
4/19/2023 6:45:00 PM 5.822 4.0728
4/19/2023 7:00:00 PM 5.8309 3.849
4/19/2023 7:15:00 PM 5.84 3.655
4/19/2023 7:30:00 PM 5.8478 3.595
4/19/2023 7:45:00 PM 5.8553 3.5868
4/19/2023 8:00:00 PM 5.8618 3.7969
4/19/2023 8:15:00 PM 5.8687 3.9229
4/19/2023 8:30:00 PM 5.8729 4.1475
4/19/2023 8:45:00 PM 5.8744 4.1
4/19/2023 9:00:00 PM 5.8811 4.1914
4/19/2023 9:15:00 PM 5.8845 4.4955
4/19/2023 9:30:00 PM 5.8888 4.5072
4/19/2023 9:45:00 PM 5.8923 4.2499
4/19/2023 10:00:00 PM 5.8934 4.1867
4/19/2023 10:15:00 PM 5.8938 4.1538
4/19/2023 10:30:00 PM 5.8968 4.3698
4/19/2023 10:45:00 PM 5.8983 4.3206
4/19/2023 11:00:00 PM 5.8983 4.2195
4/19/2023 11:15:00 PM 5.8983 4.2026
4/19/2023 11:30:00 PM 5.8981 4.2936
4/19/2023 11:45:00 PM 5.8996 4.1
4/20/2023 12:00:00 AM 5.895 4.146
4/20/2023 12:15:00 AM 5.8935 4.1215
4/20/2023 12:30:00 AM 5.8898 4.3107
4/20/2023 12:45:00 AM 5.8859 4.5839
4/20/2023 1:00:00 AM 5.8807 4.7293
4/20/2023 1:15:00 AM 5.8749 4.5074
4/20/2023 1:30:00 AM 5.8715 4.3429
4/20/2023 1:45:00 AM 5.8662 4.3098
4/20/2023 2:00:00 AM 5.8612 4.2681
4/20/2023 2:15:00 AM 5.855 4.8512
4/20/2023 2:30:00 AM 5.8475 4.9551
4/20/2023 2:45:00 AM 5.845 4.9
4/20/2023 3:00:00 AM 5.833 4.3563
4/20/2023 3:15:00 AM 5.8272 4.2904
4/20/2023 3:30:00 AM 5.8214 4.1989
4/20/2023 3:45:00 AM 5.817 4.8484
4/20/2023 4:00:00 AM 5.8115 5.4164
4/20/2023 4:15:00 AM 5.8061 4.5453
4/20/2023 4:30:00 AM 5.8015 4.3538
4/20/2023 4:45:00 AM 5.7971 4.1719
4/20/2023 5:00:00 AM 5.793 4.0744
4/20/2023 5:15:00 AM 5.7909 4.0836
4/20/2023 5:30:00 AM 5.7861 4.1981
4/20/2023 5:45:00 AM 5.7876 4.2
4/20/2023 6:00:00 AM 5.7784 4.4441
4/20/2023 6:15:00 AM 5.7758 4.3011
4/20/2023 6:30:00 AM 5.7683 6.2654
4/20/2023 6:45:00 AM 5.7676 5.1907
4/20/2023 7:00:00 AM 5.7676 4.8177
4/20/2023 7:15:00 AM 5.764 4.4545
4/20/2023 7:30:00 AM 5.7598 4.4016
4/20/2023 7:45:00 AM 5.7558 4.6702
4/20/2023 8:00:00 AM 5.7528 4.5195
4/20/2023 8:15:00 AM 5.7523 4.4114
4/20/2023 8:30:00 AM 5.7486 4.7351
4/20/2023 8:45:00 AM 5.7498 4.2
4/20/2023 9:00:00 AM 5.7402 3.7062
4/20/2023 9:15:00 AM 5.7388 3.667
4/20/2023 9:30:00 AM 5.7352 3.6495
4/20/2023 9:45:00 AM 5.7332 3.5791
4/20/2023 10:00:00 AM 5.7294 3.5692
4/20/2023 10:15:00 AM 5.7294 33.4618
4/20/2023 10:30:00 AM 5.7249 28.3323
4/20/2023 10:45:00 AM 5.7206 7.5819
4/20/2023 11:00:00 AM 5.7179 5.6311
4/20/2023 11:15:00 AM 5.7154 4.6859
4/20/2023 11:30:00 AM 5.7154 4.382
4/20/2023 11:45:00 AM 5.7134 4
4/20/2023 12:00:00 PM 5.7122 3.8878
4/20/2023 12:15:00 PM 5.7105 3.6661
4/20/2023 12:30:00 PM 5.7105 3.6634
4/20/2023 12:45:00 PM 5.7105 3.4551
4/20/2023 1:00:00 PM 5.7076 3.4091
4/20/2023 1:15:00 PM 5.7066 3.3039
4/20/2023 1:30:00 PM 5.7062 3.2068
4/20/2023 1:45:00 PM 5.7061 3.0371
4/20/2023 2:00:00 PM 5.7061 3.0249
4/20/2023 2:15:00 PM 5.7069 2.9744
4/20/2023 2:30:00 PM 5.7111 3.0227
4/20/2023 2:45:00 PM 5.7156 2.9762
4/20/2023 3:00:00 PM 5.7197 3.0017
4/20/2023 3:15:00 PM 5.7204 2.9425
4/20/2023 3:30:00 PM 5.722 2.9263
4/20/2023 3:45:00 PM 5.725 2.8488
4/20/2023 4:00:00 PM 5.7292 2.8162
4/20/2023 4:15:00 PM 5.7348 2.7425
4/20/2023 4:30:00 PM 5.7392 2.8462
4/20/2023 4:45:00 PM 5.7446 2.8505
4/20/2023 5:00:00 PM 5.7507 2.8062
4/20/2023 5:15:00 PM 5.7557 2.827
4/20/2023 5:30:00 PM 5.7632 2.8702
4/20/2023 5:45:00 PM 5.7694 2.9
4/20/2023 6:00:00 PM 5.7767 2.8485
4/20/2023 6:15:00 PM 5.7859 2.7655
4/20/2023 6:30:00 PM 5.7944 2.7413
4/20/2023 6:45:00 PM 5.8039 2.7309
4/20/2023 7:00:00 PM 5.813 2.7968
4/20/2023 7:15:00 PM 5.8195 2.8616
4/20/2023 7:30:00 PM 5.8279 2.9481
4/20/2023 7:45:00 PM 5.8353 2.8221
4/20/2023 8:00:00 PM 5.8403 2.8709
4/20/2023 8:15:00 PM 5.8453 2.7648
4/20/2023 8:30:00 PM 5.852 2.8839
4/20/2023 8:45:00 PM 5.8534 3
4/20/2023 9:00:00 PM 5.8645 3.5163
4/20/2023 9:15:00 PM 5.8689 3.1881
4/20/2023 9:30:00 PM 5.8731 3.2443
4/20/2023 9:45:00 PM 5.8774 3.1098
4/20/2023 10:00:00 PM 5.8829 3.1129
4/20/2023 10:15:00 PM 5.8875 3.039
4/20/2023 10:30:00 PM 5.8887 3.0949
4/20/2023 10:45:00 PM 5.8888 3.1072
4/20/2023 11:00:00 PM 5.8889 3.0938
4/20/2023 11:15:00 PM 5.8896 35.7913
4/20/2023 11:30:00 PM 5.8962 4.224
4/20/2023 11:45:00 PM 5.8996 3.8
4/21/2023 12:00:00 AM 5.894 3.6835
4/21/2023 12:15:00 AM 5.8933 3.6698
4/21/2023 12:30:00 AM 5.8934 3.6948
4/21/2023 12:45:00 AM 5.8888 3.6251
4/21/2023 1:00:00 AM 5.8838 3.4803
4/21/2023 1:15:00 AM 5.8813 3.5784
4/21/2023 1:30:00 AM 5.8763 3.6035
4/21/2023 1:45:00 AM 5.8695 3.5364
4/21/2023 2:00:00 AM 5.8624 3.5573
4/21/2023 2:15:00 AM 5.8569 3.6754
4/21/2023 2:30:00 AM 5.8501 3.8949
4/21/2023 2:45:00 AM 5.8436 3.9
4/21/2023 3:00:00 AM 5.8368 3.7276
4/21/2023 3:15:00 AM 5.8288 3.7157
4/21/2023 3:30:00 AM 5.8232 3.6744
4/21/2023 3:45:00 AM 5.8155 3.5907
4/21/2023 4:00:00 AM 5.8086 3.6895
4/21/2023 4:15:00 AM 5.8039 3.883
4/21/2023 4:30:00 AM 5.7971 3.8517
4/21/2023 4:45:00 AM 5.7911 3.6895
4/21/2023 5:00:00 AM 5.7862 3.6699
4/21/2023 5:15:00 AM 5.7812 3.4329
4/21/2023 5:30:00 AM 5.7774 3.4045
4/21/2023 5:45:00 AM 5.7778 3.4
4/21/2023 6:00:00 AM 5.7684 3.4776
4/21/2023 6:15:00 AM 5.7643 3.4487
4/21/2023 6:30:00 AM 5.7617 3.4555
4/21/2023 6:45:00 AM 5.7587 3.4928
4/21/2023 7:00:00 AM 5.7563 4.107
4/21/2023 7:15:00 AM 5.7533 3.5956
4/21/2023 7:30:00 AM 5.7492 3.455
4/21/2023 7:45:00 AM 5.748 3.2741
4/21/2023 8:00:00 AM 5.7444 3.2877
4/21/2023 8:15:00 AM 5.7437 3.3096
4/21/2023 8:30:00 AM 5.7442 3.2628
4/21/2023 8:45:00 AM 5.7456 3.2
4/21/2023 9:00:00 AM 5.7429 3.137
4/21/2023 9:15:00 AM 5.7436 3.0932
4/21/2023 9:30:00 AM 5.7434 3.1156
4/21/2023 9:45:00 AM 5.7441 3.1641
4/21/2023 10:00:00 AM 5.7442 3.0966
4/21/2023 10:15:00 AM 5.7458 3.0414
4/21/2023 10:30:00 AM 5.7472 3.0971
4/21/2023 10:45:00 AM 5.7485 3.1378
4/21/2023 11:00:00 AM 5.7486 3.1224
4/21/2023 11:15:00 AM 5.7477 2.95
4/21/2023 11:30:00 AM 5.7487 2.8958
4/21/2023 11:45:00 AM 5.747 2.9
4/21/2023 12:00:00 PM 5.7488 2.8997
4/21/2023 12:15:00 PM 5.7526 2.9352
4/21/2023 12:30:00 PM 5.7533 2.8366
4/21/2023 12:45:00 PM 5.7542 2.9274
4/21/2023 1:00:00 PM 5.7573 2.8442
4/21/2023 1:15:00 PM 5.7608 2.8388
4/21/2023 1:30:00 PM 5.7649 3.0307
4/21/2023 1:45:00 PM 5.7684 3.2389
4/21/2023 2:00:00 PM 5.7725 3.1296
4/21/2023 2:15:00 PM 5.7742 3.3754
4/21/2023 2:30:00 PM 5.7771 3.1775
4/21/2023 2:45:00 PM 5.7771 3.6718
4/21/2023 3:00:00 PM 5.7804 4.1252
4/21/2023 3:15:00 PM 5.7848 4.1982
4/21/2023 3:30:00 PM 5.7865 4.0368
4/21/2023 3:45:00 PM 5.7912 4.2674
4/21/2023 4:00:00 PM 5.7972 4.3589
4/21/2023 4:15:00 PM 5.8039 5.4632
4/21/2023 4:30:00 PM 5.8137 7.7351
4/21/2023 4:45:00 PM 5.8207 10.7837
4/21/2023 5:00:00 PM 5.8284 14.9472
4/21/2023 5:15:00 PM 5.8338 15.4436
4/21/2023 5:30:00 PM 5.835 15.2762
4/21/2023 5:45:00 PM 5.8352 15.5
4/21/2023 6:00:00 PM 5.841 11.3264
4/21/2023 6:15:00 PM 5.85 10.6182
4/21/2023 6:30:00 PM 5.8599 11.3488
4/21/2023 6:45:00 PM 5.8697 11.5164
4/21/2023 7:00:00 PM 5.8759 9.4184
4/21/2023 7:15:00 PM 5.8805 7.0968
4/21/2023 7:30:00 PM 5.8856 6.2913
4/21/2023 7:45:00 PM 5.8913 5.8547
4/21/2023 8:00:00 PM 5.8975 5.1988
4/21/2023 8:15:00 PM 5.9052 4.7671
4/21/2023 8:30:00 PM 5.9107 4.2462
4/21/2023 8:45:00 PM 5.915 4
4/21/2023 9:00:00 PM 5.9258 3.8261
4/21/2023 9:15:00 PM 5.933 3.6985
4/21/2023 9:30:00 PM 5.938 3.846
4/21/2023 9:45:00 PM 5.9425 3.6739
4/21/2023 10:00:00 PM 5.9467 3.6009
4/21/2023 10:15:00 PM 5.947 3.5359
4/21/2023 10:30:00 PM 5.947 3.4928
4/21/2023 10:45:00 PM 5.9475 3.573
4/21/2023 11:00:00 PM 5.9466 3.5429
4/21/2023 11:15:00 PM 5.9426 3.4702
4/21/2023 11:30:00 PM 5.9406 3.5231
4/21/2023 11:45:00 PM 5.9374 3.5
4/22/2023 12:00:00 AM 5.9298 3.864
4/22/2023 12:15:00 AM 5.9248 3.8511
4/22/2023 12:30:00 AM 5.9244 4.9285
4/22/2023 12:45:00 AM 5.9239 4.4437
4/22/2023 1:00:00 AM 5.9186 4.3421
4/22/2023 1:15:00 AM 5.9138 4.1157
4/22/2023 1:30:00 AM 5.9071 4.1863
4/22/2023 1:45:00 AM 5.8997 4.0472
4/22/2023 2:00:00 AM 5.8926 4.1067
4/22/2023 2:15:00 AM 5.8864 4.0586
4/22/2023 2:30:00 AM 5.879 3.9415
4/22/2023 2:45:00 AM 5.8716 3.9
4/22/2023 3:00:00 AM 5.8612 3.9686
4/22/2023 3:15:00 AM 5.8554 5.0261
4/22/2023 3:30:00 AM 5.8458 5.5979
4/22/2023 3:45:00 AM 5.8359 4.5138
4/22/2023 4:00:00 AM 5.8268 4.1624
4/22/2023 4:15:00 AM 5.8201 4.1021
4/22/2023 4:30:00 AM 5.8121 4.4761
4/22/2023 4:45:00 AM 5.8033 4.22
4/22/2023 5:00:00 AM 5.7966 4.0208
4/22/2023 5:15:00 AM 5.7913 4.2062
4/22/2023 5:30:00 AM 5.7872 4.5377
4/22/2023 5:45:00 AM 5.7876 4.4
4/22/2023 6:00:00 AM 5.7782 3.7016
4/22/2023 6:15:00 AM 5.7742 3.6242
4/22/2023 6:30:00 AM 5.7715 3.6374
4/22/2023 6:45:00 AM 5.7672 3.5951
4/22/2023 7:00:00 AM 5.7652 3.6238
4/22/2023 7:15:00 AM 5.7629 3.5082
4/22/2023 7:30:00 AM 5.7585 3.4863
4/22/2023 7:45:00 AM 5.7576 3.4815
4/22/2023 8:00:00 AM 5.7549 3.4694
4/22/2023 8:15:00 AM 5.7527 3.4351
4/22/2023 8:30:00 AM 5.7528 3.4255
4/22/2023 8:45:00 AM 5.7498 3.5
4/22/2023 9:00:00 AM 5.7525 3.5227
4/22/2023 9:15:00 AM 5.7529 3.4692
4/22/2023 9:30:00 AM 5.7529 3.5105
4/22/2023 9:45:00 AM 5.7548 4.0258
4/22/2023 10:00:00 AM 5.7581 4.3213
4/22/2023 10:15:00 AM 5.7578 3.9536
4/22/2023 10:30:00 AM 5.7601 3.9409
4/22/2023 10:45:00 AM 5.7626 6.2551
4/22/2023 11:00:00 AM 5.7626 4.3038
4/22/2023 11:15:00 AM 5.7646 3.91
4/22/2023 11:30:00 AM 5.7679 4.112
4/22/2023 11:45:00 AM 5.7694 4.1
4/22/2023 12:00:00 PM 5.78 4.7789
4/22/2023 12:15:00 PM 5.7876 4.3576
4/22/2023 12:30:00 PM 5.7943 4.3763
4/22/2023 12:45:00 PM 5.8006 4.5311
4/22/2023 1:00:00 PM 5.8053 4.6653
4/22/2023 1:15:00 PM 5.8108 4.6616
4/22/2023 1:30:00 PM 5.8182 4.7481
4/22/2023 1:45:00 PM 5.8295 5.3354
4/22/2023 2:00:00 PM 5.8324 6.1346
4/22/2023 2:15:00 PM 5.8366 6.1866
4/22/2023 2:30:00 PM 5.8451 10.1446
4/22/2023 2:45:00 PM 5.8506 11.6172
4/22/2023 3:00:00 PM 5.8585 10.1155
4/22/2023 3:15:00 PM 5.8678 7.6802
4/22/2023 3:30:00 PM 5.8732 6.2578
4/22/2023 3:45:00 PM 5.8783 5.5777
4/22/2023 4:00:00 PM 5.8872 5.5678
4/22/2023 4:15:00 PM 5.8967 6.6043
4/22/2023 4:30:00 PM 5.9078 6.2425
4/22/2023 4:45:00 PM 5.922 6.1434
4/22/2023 5:00:00 PM 5.9318 5.7207
4/22/2023 5:15:00 PM 5.9426 5.5683
4/22/2023 5:30:00 PM 5.9472 7.1687
4/22/2023 5:45:00 PM 5.9486 10.4997
4/22/2023 6:00:00 PM 5.9551 10.3874
4/22/2023 6:15:00 PM 5.9625 7.1303
4/22/2023 6:30:00 PM 5.9705 7.4276
4/22/2023 6:45:00 PM 5.9671 8.2457
4/22/2023 7:00:00 PM 5.9713 6.6001
4/22/2023 7:15:00 PM 5.9731 5.562
4/22/2023 7:30:00 PM 5.9763 4.5906
4/22/2023 7:45:00 PM 5.981 4.3471
4/22/2023 8:00:00 PM 5.9806 4.8385
4/22/2023 8:15:00 PM 5.9805 4.8468
4/22/2023 8:30:00 PM 5.9805 4.8809
4/22/2023 8:45:00 PM 5.9738 4.7998
4/22/2023 9:00:00 PM 5.9768 4.8109
4/22/2023 9:15:00 PM 5.976 4.6455
4/22/2023 9:30:00 PM 5.9756 4.4982
4/22/2023 9:45:00 PM 5.9717 4.3079
4/22/2023 10:00:00 PM 5.9711 4.2338
4/22/2023 10:15:00 PM 5.9701 4.2034
4/22/2023 10:30:00 PM 5.9661 4.6531
4/22/2023 10:45:00 PM 5.9644 4.769
4/22/2023 11:00:00 PM 5.9601 4.6576
4/22/2023 11:15:00 PM 5.9549 4.6661
4/22/2023 11:30:00 PM 5.9487 4.5318
4/22/2023 11:45:00 PM 5.9486 4.4
4/23/2023 12:00:00 AM 5.9347 4.4933
4/23/2023 12:15:00 AM 5.9268 4.364
4/23/2023 12:30:00 AM 5.9182 4.3491
4/23/2023 12:45:00 AM 5.9095 4.2705
4/23/2023 1:00:00 AM 5.9019 4.2455
4/23/2023 1:15:00 AM 5.893 4.2387
4/23/2023 1:30:00 AM 5.8817 4.2229
4/23/2023 1:45:00 AM 5.8711 4.2527
4/23/2023 2:00:00 AM 5.8623 4.2788
4/23/2023 2:15:00 AM 5.8534 4.3731
4/23/2023 2:30:00 AM 5.844 4.3533
4/23/2023 2:45:00 AM 5.8394 4.3
4/23/2023 3:00:00 AM 5.8222 4.2346
4/23/2023 3:15:00 AM 5.8125 4.3557
4/23/2023 3:30:00 AM 5.802 4.3123
4/23/2023 3:45:00 AM 5.7942 4.5055
4/23/2023 4:00:00 AM 5.7877 4.0128
4/23/2023 4:15:00 AM 5.7814 3.7869
4/23/2023 4:30:00 AM 5.776 3.833
4/23/2023 4:45:00 AM 5.7704 3.9929
4/23/2023 5:00:00 AM 5.765 3.9582
4/23/2023 5:15:00 AM 5.7617 3.8595
4/23/2023 5:30:00 AM 5.758 3.8318
4/23/2023 5:45:00 AM 5.7568 3.9
4/23/2023 6:00:00 AM 5.7533 3.8679
4/23/2023 6:15:00 AM 5.7487 3.8536
4/23/2023 6:30:00 AM 5.7482 3.8549
4/23/2023 6:45:00 AM 5.7465 3.8534
4/23/2023 7:00:00 AM 5.7436 3.8447
4/23/2023 7:15:00 AM 5.739 3.8742
4/23/2023 7:30:00 AM 5.7384 3.8489
4/23/2023 7:45:00 AM 5.7346 3.775
4/23/2023 8:00:00 AM 5.7341 3.7113
4/23/2023 8:15:00 AM 5.7338 3.6533
4/23/2023 8:30:00 AM 5.7335 3.6337
4/23/2023 8:45:00 AM 5.7344 3.6001
4/23/2023 9:00:00 AM 5.7316 3.6589
4/23/2023 9:15:00 AM 5.7331 3.6517
4/23/2023 9:30:00 AM 5.734 3.6642
4/23/2023 9:45:00 AM 5.7341 3.6496
4/23/2023 10:00:00 AM 5.735 3.689
4/23/2023 10:15:00 AM 5.7361 3.8154
4/23/2023 10:30:00 AM 5.7385 3.6103
4/23/2023 10:45:00 AM 5.7387 3.5767
4/23/2023 11:00:00 AM 5.7387 3.5577
4/23/2023 11:15:00 AM 5.739 5.0301
4/23/2023 11:30:00 AM 5.7421 4.1313
4/23/2023 11:45:00 AM 5.7442 3.9
4/23/2023 12:00:00 PM 5.7486 4.0898
4/23/2023 12:15:00 PM 5.753 4.283
4/23/2023 12:30:00 PM 5.7559 4.2929
4/23/2023 12:45:00 PM 5.7575 4.0798
4/23/2023 1:00:00 PM 5.7576 4.0629
4/23/2023 1:15:00 PM 5.7581 4.057
4/23/2023 1:30:00 PM 5.7608 4.0043
4/23/2023 1:45:00 PM 5.7636 4.0061
4/23/2023 2:00:00 PM 5.7688 4.156
4/23/2023 2:15:00 PM 5.7733 4.2402
4/23/2023 2:30:00 PM 5.7808 4.2216
4/23/2023 2:45:00 PM 5.7865 4.6913
4/23/2023 3:00:00 PM 5.791 4.5715
4/23/2023 3:15:00 PM 5.7913 4.2978
4/23/2023 3:30:00 PM 5.7916 4.2873
4/23/2023 3:45:00 PM 5.7912 4.4072
4/23/2023 4:00:00 PM 5.791 4.4178
4/23/2023 4:15:00 PM 5.7916 4.2411
4/23/2023 4:30:00 PM 5.7915 4.2935
4/23/2023 4:45:00 PM 5.7914 4.2621
4/23/2023 5:00:00 PM 5.7913 4.427
4/23/2023 5:15:00 PM 5.7931 4.8564
4/23/2023 5:30:00 PM 5.7962 5.0367
4/23/2023 5:45:00 PM 5.7988 5
4/23/2023 6:00:00 PM 5.7962 4.9755
4/23/2023 6:15:00 PM 5.7948 4.7245
4/23/2023 6:30:00 PM 5.796 4.622
4/23/2023 6:45:00 PM 5.7952 4.5134
4/23/2023 7:00:00 PM 5.7944 4.5443
4/23/2023 7:15:00 PM 5.7957 4.3732
4/23/2023 7:30:00 PM 5.7923 4.1942
4/23/2023 7:45:00 PM 5.7914 4.0827
4/23/2023 8:00:00 PM 5.7876 3.9202
4/23/2023 8:15:00 PM 5.7857 3.8406
4/23/2023 8:30:00 PM 5.782 3.8366
4/23/2023 8:45:00 PM 5.7806 3.8
4/23/2023 9:00:00 PM 5.7798 3.8228
4/23/2023 9:15:00 PM 5.7773 3.7729
4/23/2023 9:30:00 PM 5.7743 4.8737
4/23/2023 9:45:00 PM 5.7683 4.9243
4/23/2023 10:00:00 PM 5.7673 4.3348
4/23/2023 10:15:00 PM 5.7612 4.0512
4/23/2023 10:30:00 PM 5.7558 3.9483
4/23/2023 10:45:00 PM 5.753 4.4847
4/23/2023 11:00:00 PM 5.7511 4.2022
4/23/2023 11:15:00 PM 5.7476 4.1671
4/23/2023 11:30:00 PM 5.7431 4.0571
4/23/2023 11:45:00 PM 5.7456 4
4/24/2023 12:00:00 AM 5.7385 4.0802
4/24/2023 12:15:00 AM 5.7347 3.9984
4/24/2023 12:30:00 AM 5.7331 3.9391
4/24/2023 12:45:00 AM 5.7296 3.9399
4/24/2023 1:00:00 AM 5.7259 4.0658
4/24/2023 1:15:00 AM 5.7213 4.0495
4/24/2023 1:30:00 AM 5.7195 3.9595
4/24/2023 1:45:00 AM 5.7161 3.8642
4/24/2023 2:00:00 AM 5.7134 3.8822
4/24/2023 2:15:00 AM 5.7107 3.8708
4/24/2023 2:30:00 AM 5.7094 3.9149
4/24/2023 2:45:00 AM 5.7064 3.9
4/24/2023 3:00:00 AM 5.7039 4.6945
4/24/2023 3:15:00 AM 5.701 4.2707
4/24/2023 3:30:00 AM 5.6964 4.2657
4/24/2023 3:45:00 AM 5.6935 4.2613
4/24/2023 4:00:00 AM 5.6909 4.2744
4/24/2023 4:15:00 AM 5.6884 4.265
4/24/2023 4:30:00 AM 5.686 4.3085
4/24/2023 4:45:00 AM 5.6826 4.3463
4/24/2023 5:00:00 AM 5.6804 4.4174
4/24/2023 5:15:00 AM 5.6767 4.3769
4/24/2023 5:30:00 AM 5.6735 4.5215
4/24/2023 5:45:00 AM 5.67 4.6
4/24/2023 6:00:00 AM 5.667 4.6731
4/24/2023 6:15:00 AM 5.6649 4.7095
4/24/2023 6:30:00 AM 5.6599 4.811
4/24/2023 6:45:00 AM 5.6542 4.9885
4/24/2023 7:00:00 AM 5.6501 5.1988
4/24/2023 7:15:00 AM 5.6447 5.1784
4/24/2023 7:30:00 AM 5.6409 5.0447
4/24/2023 7:45:00 AM 5.6365 5.0955
4/24/2023 8:00:00 AM 5.6326 5.0803
4/24/2023 8:15:00 AM 5.629 5.2334
4/24/2023 8:30:00 AM 5.6239 5.0177
4/24/2023 8:45:00 AM 5.621 5
4/24/2023 9:00:00 AM 5.6184 6.1414
4/24/2023 9:15:00 AM 5.6127 80.8928
4/24/2023 9:30:00 AM 5.6089 11.9553
4/24/2023 9:45:00 AM 5.6085 5.8601
4/24/2023 10:00:00 AM 5.6052 5.2355
4/24/2023 10:15:00 AM 5.603 4.988
4/24/2023 10:30:00 AM 5.5989 4.9454
4/24/2023 10:45:00 AM 5.5979 4.8152
4/24/2023 11:00:00 AM 5.5941 4.7975
4/24/2023 11:15:00 AM 5.5933 4.7276
4/24/2023 11:30:00 AM 5.589 4.5864
4/24/2023 11:45:00 AM 5.586 4.6
4/24/2023 12:00:00 PM 5.581 4.4923
4/24/2023 12:15:00 PM 5.5799 4.5422
4/24/2023 12:30:00 PM 5.5795 4.4945
4/24/2023 12:45:00 PM 5.5781 4.5197
4/24/2023 1:00:00 PM 5.5746 4.5711
4/24/2023 1:15:00 PM 5.5735 4.6169
4/24/2023 1:30:00 PM 5.5707 4.7136
4/24/2023 1:45:00 PM 5.5699 4.9449
4/24/2023 2:00:00 PM 5.5697 4.9475
4/24/2023 2:15:00 PM 5.5693 4.8284
4/24/2023 2:30:00 PM 5.5711 4.8589
4/24/2023 2:45:00 PM 5.575 4.8862
4/24/2023 3:00:00 PM 5.5742 4.9795
4/24/2023 3:15:00 PM 5.5745 4.9307
4/24/2023 3:30:00 PM 5.5746 5.095
4/24/2023 3:45:00 PM 5.5766 4.8192
4/24/2023 4:00:00 PM 5.5795 4.9112
4/24/2023 4:15:00 PM 5.5807 5.1447
4/24/2023 4:30:00 PM 5.5839 5.2331
4/24/2023 4:45:00 PM 5.587 5.0841
4/24/2023 5:00:00 PM 5.5921 5.0707
4/24/2023 5:15:00 PM 5.5968 5.2408
4/24/2023 5:30:00 PM 5.6007 5.2879
4/24/2023 5:45:00 PM 5.6056 5.1
4/24/2023 6:00:00 PM 5.6086 4.9052
4/24/2023 6:15:00 PM 5.6135 4.9549
4/24/2023 6:30:00 PM 5.6173 4.9584
4/24/2023 6:45:00 PM 5.618 4.9207
4/24/2023 7:00:00 PM 5.622 5.1811
4/24/2023 7:15:00 PM 5.6234 5.1238
4/24/2023 7:30:00 PM 5.6246 5.327
4/24/2023 7:45:00 PM 5.6235 5.1728
4/24/2023 8:00:00 PM 5.6256 5.248
4/24/2023 8:15:00 PM 5.6265 5.5924
4/24/2023 8:30:00 PM 5.6237 6.0807
4/24/2023 8:45:00 PM 5.6238 6.1001
4/24/2023 9:00:00 PM 5.6183 6.2672
4/24/2023 9:15:00 PM 5.6141 6.5406
4/24/2023 9:30:00 PM 5.6123 6.698
4/24/2023 9:45:00 PM 5.6088 6.9349
4/24/2023 10:00:00 PM 5.6061 6.9401
4/24/2023 10:15:00 PM 5.6027 6.6792
4/24/2023 10:30:00 PM 5.598 6.7195
4/24/2023 10:45:00 PM 5.5944 6.8818
4/24/2023 11:00:00 PM 5.5909 6.9847
4/24/2023 11:15:00 PM 5.5877 6.6583
4/24/2023 11:30:00 PM 5.5835 6.4203
4/24/2023 11:45:00 PM 5.5804 6.3
4/25/2023 12:00:00 AM 5.5745 6.5508
4/25/2023 12:15:00 AM 5.5707 6.4276
4/25/2023 12:30:00 AM 5.5667 6.3797
4/25/2023 12:45:00 AM 5.5642 6.3892
4/25/2023 1:00:00 AM 5.5601 6.5288
4/25/2023 1:15:00 AM 5.5591 6.312
4/25/2023 1:30:00 AM 5.5548 6.4666
4/25/2023 1:45:00 AM 5.555 6.5264
4/25/2023 2:00:00 AM 5.5524 6.7197
4/25/2023 2:15:00 AM 5.5501 8.6677
4/25/2023 2:30:00 AM 5.5478 7.232
4/25/2023 2:45:00 AM 5.5426 7
4/25/2023 3:00:00 AM 5.5432 6.9211
4/25/2023 3:15:00 AM 5.5405 6.743
4/25/2023 3:30:00 AM 5.5369 7.0126
4/25/2023 3:45:00 AM 5.5354 7.1931
4/25/2023 4:00:00 AM 5.5336 6.621
4/25/2023 4:15:00 AM 5.5303 6.3335
4/25/2023 4:30:00 AM 5.5302 6.3969
4/25/2023 4:45:00 AM 5.5267 6.294
4/25/2023 5:00:00 AM 5.5254 6.4307
4/25/2023 5:15:00 AM 5.5253 6.2758
4/25/2023 5:30:00 AM 5.5248 6.2998
4/25/2023 5:45:00 AM 5.5258 6.3
4/25/2023 6:00:00 AM 5.5201 6.2556
4/25/2023 6:15:00 AM 5.5203 6.268
4/25/2023 6:30:00 AM 5.5198 6.4705
4/25/2023 6:45:00 AM 5.5187 6.4295
4/25/2023 7:00:00 AM 5.5158 6.5412
4/25/2023 7:15:00 AM 5.5114 6.3928
4/25/2023 7:30:00 AM 5.5073 6.3013
4/25/2023 7:45:00 AM 5.5038 6.093
4/25/2023 8:00:00 AM 5.5003 6.0288
4/25/2023 8:15:00 AM 5.4979 5.9188
4/25/2023 8:30:00 AM 5.496 5.895
4/25/2023 8:45:00 AM 5.495 5.8
4/25/2023 9:00:00 AM 5.4963 5.6517
4/25/2023 9:15:00 AM 5.4963 5.5576
4/25/2023 9:30:00 AM 5.4954 5.6014
4/25/2023 9:45:00 AM 5.4984 7.7374
4/25/2023 10:00:00 AM 5.5005 6.1503
4/25/2023 10:15:00 AM 5.5005 5.964
4/25/2023 10:30:00 AM 5.5016 6.0208
4/25/2023 10:45:00 AM 5.5006 5.9636
4/25/2023 11:00:00 AM 5.5003 5.7689
4/25/2023 11:15:00 AM 5.5004 5.6374
4/25/2023 11:30:00 AM 5.5007 5.6806
4/25/2023 11:45:00 AM 5.5048 5.7
4/25/2023 12:00:00 PM 5.5006 5.7276
4/25/2023 12:15:00 PM 5.5005 5.6964
4/25/2023 12:30:00 PM 5.499 5.6868
4/25/2023 12:45:00 PM 5.4957 5.9055
4/25/2023 1:00:00 PM 5.4947 5.7825
4/25/2023 1:15:00 PM 5.4907 5.6867
4/25/2023 1:30:00 PM 5.4906 5.6554
4/25/2023 1:45:00 PM 5.4891 5.6263
4/25/2023 2:00:00 PM 5.4903 5.6196
4/25/2023 2:15:00 PM 5.4904 5.6357
4/25/2023 2:30:00 PM 5.4924 5.6093
4/25/2023 2:45:00 PM 5.4952 5.6031
4/25/2023 3:00:00 PM 5.4957 5.5438
4/25/2023 3:15:00 PM 5.4955 5.4748
4/25/2023 3:30:00 PM 5.4959 5.6347
4/25/2023 3:45:00 PM 5.4956 5.6181
4/25/2023 4:00:00 PM 5.4957 5.5626
4/25/2023 4:15:00 PM 5.5001 5.5788
4/25/2023 4:30:00 PM 5.5002 5.5725
4/25/2023 4:45:00 PM 5.5007 5.5465
4/25/2023 5:00:00 PM 5.5037 6.1347
4/25/2023 5:15:00 PM 5.505 6.3016
4/25/2023 5:30:00 PM 5.5062 6.0706
4/25/2023 5:45:00 PM 5.5104 6
4/25/2023 6:00:00 PM 5.5136 5.9286
4/25/2023 6:15:00 PM 5.517 5.9606
4/25/2023 6:30:00 PM 5.5197 5.9219
4/25/2023 6:45:00 PM 5.5206 5.8052
4/25/2023 7:00:00 PM 5.5233 5.8103
4/25/2023 7:15:00 PM 5.5254 5.7222
4/25/2023 7:30:00 PM 5.5252 5.8218
4/25/2023 7:45:00 PM 5.5283 5.8775
4/25/2023 8:00:00 PM 5.5298 5.8325
4/25/2023 8:15:00 PM 5.5303 5.8459
4/25/2023 8:30:00 PM 5.5317 5.7971
4/25/2023 8:45:00 PM 5.53 5.9
4/25/2023 9:00:00 PM 5.5326 6.0867
4/25/2023 9:15:00 PM 5.534 6.0772
4/25/2023 9:30:00 PM 5.5351 6.1643
4/25/2023 9:45:00 PM 5.5326 6.3413
4/25/2023 10:00:00 PM 5.5303 6.3237
4/25/2023 10:15:00 PM 5.53 6.2929
4/25/2023 10:30:00 PM 5.5298 6.6372
4/25/2023 10:45:00 PM 5.53 6.613
4/25/2023 11:00:00 PM 5.5303 6.7149
4/25/2023 11:15:00 PM 5.5293 6.6591
4/25/2023 11:30:00 PM 5.5257 6.7486
4/25/2023 11:45:00 PM 5.5258 6.8
4/26/2023 12:00:00 AM 5.5247 6.8002
4/26/2023 12:15:00 AM 5.521 6.8376
4/26/2023 12:30:00 AM 5.5204 6.8861
4/26/2023 12:45:00 AM 5.5172 7.0219
4/26/2023 1:00:00 AM 5.5153 6.7665
4/26/2023 1:15:00 AM 5.5109 6.7173
4/26/2023 1:30:00 AM 5.5098 6.7055
4/26/2023 1:45:00 AM 5.5052 6.6668
4/26/2023 2:00:00 AM 5.5052 6.5885
4/26/2023 2:15:00 AM 5.5009 6.6936
4/26/2023 2:30:00 AM 5.4984 6.755
4/26/2023 2:45:00 AM 5.4908 6.6
4/26/2023 3:00:00 AM 5.4955 6.6593
4/26/2023 3:15:00 AM 5.4951 6.8158
4/26/2023 3:30:00 AM 5.494 7.0685
4/26/2023 3:45:00 AM 5.4907 7.4558
4/26/2023 4:00:00 AM 5.4906 7.8754
4/26/2023 4:15:00 AM 5.4904 7.6713
4/26/2023 4:30:00 AM 5.4894 7.3778
4/26/2023 4:45:00 AM 5.4865 6.9855
4/26/2023 5:00:00 AM 5.4863 6.9493
4/26/2023 5:15:00 AM 5.4857 6.8398
4/26/2023 5:30:00 AM 5.4859 6.8957
4/26/2023 5:45:00 AM 5.488 6.8
4/26/2023 6:00:00 AM 5.4854 6.8735
4/26/2023 6:15:00 AM 5.4854 6.8401
4/26/2023 6:30:00 AM 5.4851 6.8112
4/26/2023 6:45:00 AM 5.4854 6.8133
4/26/2023 7:00:00 AM 5.4839 7.0617
4/26/2023 7:15:00 AM 5.4807 6.8921
4/26/2023 7:30:00 AM 5.4801 6.6656
4/26/2023 7:45:00 AM 5.4755 6.4658
4/26/2023 8:00:00 AM 5.4753 6.3459
4/26/2023 8:15:00 AM 5.4724 6.3173
4/26/2023 8:30:00 AM 5.471 6.2885
4/26/2023 8:45:00 AM 5.4712 6.3
4/26/2023 9:00:00 AM 5.4711 6.1497
4/26/2023 9:15:00 AM 5.4704 5.9027
4/26/2023 9:30:00 AM 5.4679 5.9197
4/26/2023 9:45:00 AM 5.466 5.9456
4/26/2023 10:00:00 AM 5.4655 5.9228
4/26/2023 10:15:00 AM 5.4664 5.8111
4/26/2023 10:30:00 AM 5.4662 5.8303
4/26/2023 10:45:00 AM 5.4652 5.8244
4/26/2023 11:00:00 AM 5.4652 5.735
4/26/2023 11:15:00 AM 5.4659 5.5511
4/26/2023 11:30:00 AM 5.4665 5.5224
4/26/2023 11:45:00 AM 5.467 5.5
4/26/2023 12:00:00 PM 5.4689 5.4537
4/26/2023 12:15:00 PM 5.4708 5.4865
4/26/2023 12:30:00 PM 5.4701 5.8458
4/26/2023 12:45:00 PM 5.4709 5.6221
4/26/2023 1:00:00 PM 5.4712 5.3668
4/26/2023 1:15:00 PM 5.4714 5.2575
4/26/2023 1:30:00 PM 5.4758 6.1344
4/26/2023 1:45:00 PM 5.4777 7.3422
4/26/2023 2:00:00 PM 5.4813 10.1693
4/26/2023 2:15:00 PM 5.4851 8.9775
4/26/2023 2:30:00 PM 5.4862 7.392
4/26/2023 2:45:00 PM 5.4904 6.8229
4/26/2023 3:00:00 PM 5.4912 6.6764
4/26/2023 3:15:00 PM 5.4952 6.3476
4/26/2023 3:30:00 PM 5.4995 6.0532
4/26/2023 3:45:00 PM 5.5029 5.721
4/26/2023 4:00:00 PM 5.5057 5.5403
4/26/2023 4:15:00 PM 5.5098 5.3568
4/26/2023 4:30:00 PM 5.5142 5.2473
4/26/2023 4:45:00 PM 5.5171 5.2052
4/26/2023 5:00:00 PM 5.5205 5.0864
4/26/2023 5:15:00 PM 5.5249 5.0728
4/26/2023 5:30:00 PM 5.5298 5.3385
4/26/2023 5:45:00 PM 5.53 5.2
4/26/2023 6:00:00 PM 5.5366 5.0873
4/26/2023 6:15:00 PM 5.5429 5.0478
4/26/2023 6:30:00 PM 5.5497 5.0658
4/26/2023 6:45:00 PM 5.5547 4.8186
4/26/2023 7:00:00 PM 5.5568 4.8556
4/26/2023 7:15:00 PM 5.56 4.8544
4/26/2023 7:30:00 PM 5.561 5.1605
4/26/2023 7:45:00 PM 5.5636 5.2866
4/26/2023 8:00:00 PM 5.5649 5.448
4/26/2023 8:15:00 PM 5.5656 11.1595
4/26/2023 8:30:00 PM 5.5693 5.6165
4/26/2023 8:45:00 PM 5.572 5.2
4/26/2023 9:00:00 PM 5.568 6.1865
4/26/2023 9:15:00 PM 5.5645 6.8168
4/26/2023 9:30:00 PM 5.5653 5.2254
4/26/2023 9:45:00 PM 5.5644 5.0637
4/26/2023 10:00:00 PM 5.5644 4.9786
4/26/2023 10:15:00 PM 5.5648 4.9509
4/26/2023 10:30:00 PM 5.5646 4.9716
4/26/2023 10:45:00 PM 5.5645 4.9585
4/26/2023 11:00:00 PM 5.5611 5.177
4/26/2023 11:15:00 PM 5.5615 5.1206
4/26/2023 11:30:00 PM 5.5604 5.009
4/26/2023 11:45:00 PM 5.5608 4.9
4/27/2023 12:00:00 AM 5.557 4.999
4/27/2023 12:15:00 AM 5.5554 4.9939
4/27/2023 12:30:00 AM 5.5548 5.0211
4/27/2023 12:45:00 AM 5.5521 5.0251
4/27/2023 1:00:00 AM 5.5474 4.9031
4/27/2023 1:15:00 AM 5.5454 4.8507
4/27/2023 1:30:00 AM 5.5449 4.7804
4/27/2023 1:45:00 AM 5.5409 4.8134
4/27/2023 2:00:00 AM 5.5403 5.0446
4/27/2023 2:15:00 AM 5.5392 4.9647
4/27/2023 2:30:00 AM 5.5357 4.9117
4/27/2023 2:45:00 AM 5.5356 4.9
4/27/2023 3:00:00 AM 5.5353 5.3556
4/27/2023 3:15:00 AM 5.535 5.0427
4/27/2023 3:30:00 AM 5.5349 4.9742
4/27/2023 3:45:00 AM 5.5307 5.0421
4/27/2023 4:00:00 AM 5.5302 5.0409
4/27/2023 4:15:00 AM 5.5302 5.1022
4/27/2023 4:30:00 AM 5.526 5.2793
4/27/2023 4:45:00 AM 5.5253 5.4027
4/27/2023 5:00:00 AM 5.5245 5.3531
4/27/2023 5:15:00 AM 5.5223 5.4295
4/27/2023 5:30:00 AM 5.5228 5.1113
4/27/2023 5:45:00 AM 5.5216 5.2
4/27/2023 6:00:00 AM 5.5202 5.1315
4/27/2023 6:15:00 AM 5.5203 5.0059
4/27/2023 6:30:00 AM 5.5197 4.9547
4/27/2023 6:45:00 AM 5.5172 4.8524
4/27/2023 7:00:00 AM 5.5155 4.7977
4/27/2023 7:15:00 AM 5.5154 4.7372
4/27/2023 7:30:00 AM 5.5151 4.716
4/27/2023 7:45:00 AM 5.5154 4.7805
4/27/2023 8:00:00 AM 5.5153 4.8784
4/27/2023 8:15:00 AM 5.515 18.2396
4/27/2023 8:30:00 AM 5.5148 6.298
4/27/2023 8:45:00 AM 5.516 5.6
4/27/2023 9:00:00 AM 5.5122 4.9381
4/27/2023 9:15:00 AM 5.5099 4.7798
4/27/2023 9:30:00 AM 5.5101 4.8073
4/27/2023 9:45:00 AM 5.5103 4.5425
4/27/2023 10:00:00 AM 5.5106 4.5011
4/27/2023 10:15:00 AM 5.5105 4.6408
4/27/2023 10:30:00 AM 5.5103 4.8865
4/27/2023 10:45:00 AM 5.5104 4.9398
4/27/2023 11:00:00 AM 5.5105 13.0593
4/27/2023 11:15:00 AM 5.5103 6.0439
4/27/2023 11:30:00 AM 5.5102 5.4574
4/27/2023 11:45:00 AM 5.5104 5.3
4/27/2023 12:00:00 PM 5.5105 4.6252
4/27/2023 12:15:00 PM 5.5101 4.4808
4/27/2023 12:30:00 PM 5.5101 4.3275
4/27/2023 12:45:00 PM 5.5103 4.2524
4/27/2023 1:00:00 PM 5.5108 4.2503
4/27/2023 1:15:00 PM 5.5106 4.1518
4/27/2023 1:30:00 PM 5.5107 4.0582
4/27/2023 1:45:00 PM 5.5117 4.051
4/27/2023 2:00:00 PM 5.5108 4.0664
4/27/2023 2:15:00 PM 5.5148 3.9551
4/27/2023 2:30:00 PM 5.5156 3.9402
4/27/2023 2:45:00 PM 5.5158 3.9352
4/27/2023 3:00:00 PM 5.5176 4.6108
4/27/2023 3:15:00 PM 5.5201 4.3225
4/27/2023 3:30:00 PM 5.5205 4.0938
4/27/2023 3:45:00 PM 5.5243 4.4327
4/27/2023 4:00:00 PM 5.5257 4.3885
4/27/2023 4:15:00 PM 5.5299 4.8193
4/27/2023 4:30:00 PM 5.5337 4.5968
4/27/2023 4:45:00 PM 5.5388 4.1861
4/27/2023 5:00:00 PM 5.5445 4.1496
4/27/2023 5:15:00 PM 5.5502 4.143
4/27/2023 5:30:00 PM 5.5547 4.6771
4/27/2023 5:45:00 PM 5.5552 4.5
4/27/2023 6:00:00 PM 5.5636 4.3151
4/27/2023 6:15:00 PM 5.5684 4.2362
4/27/2023 6:30:00 PM 5.5699 4.1454
4/27/2023 6:45:00 PM 5.5745 4.1291
4/27/2023 7:00:00 PM 5.5782 4.1809
4/27/2023 7:15:00 PM 5.5815 4.0501
4/27/2023 7:30:00 PM 5.5843 4.1129
4/27/2023 7:45:00 PM 5.5879 4.2498
4/27/2023 8:00:00 PM 5.5927 4.2836
4/27/2023 8:15:00 PM 5.5935 7.1144
4/27/2023 8:30:00 PM 5.5936 4.5844
4/27/2023 8:45:00 PM 5.593 4.4
4/27/2023 9:00:00 PM 5.5976 4.3906
4/27/2023 9:15:00 PM 5.5983 4.4156
4/27/2023 9:30:00 PM 5.5985 4.3493
4/27/2023 9:45:00 PM 5.5986 4.2688
4/27/2023 10:00:00 PM 5.5987 6.3309
4/27/2023 10:15:00 PM 5.5984 4.5292
4/27/2023 10:30:00 PM 5.5975 4.5126
4/27/2023 10:45:00 PM 5.5938 4.5168
4/27/2023 11:00:00 PM 5.5936 4.4938
4/27/2023 11:15:00 PM 5.5906 4.4625
4/27/2023 11:30:00 PM 5.5887 4.5142
4/27/2023 11:45:00 PM 5.5874 4.3
4/28/2023 12:00:00 AM 5.5845 4.5792
4/28/2023 12:15:00 AM 5.583 4.3594
4/28/2023 12:30:00 AM 5.5792 4.3867
4/28/2023 12:45:00 AM 5.5784 4.3166
4/28/2023 1:00:00 AM 5.5744 4.2742
4/28/2023 1:15:00 AM 5.5729 4.3675
4/28/2023 1:30:00 AM 5.5695 4.3463
4/28/2023 1:45:00 AM 5.5692 4.2922
4/28/2023 2:00:00 AM 5.5652 4.3215
4/28/2023 2:15:00 AM 5.5633 4.4785
4/28/2023 2:30:00 AM 5.5605 4.4312
4/28/2023 2:45:00 AM 5.5608 4.4
4/28/2023 3:00:00 AM 5.555 4.7311
4/28/2023 3:15:00 AM 5.5537 4.6023
4/28/2023 3:30:00 AM 5.5504 4.3926
4/28/2023 3:45:00 AM 5.5505 4.3902
4/28/2023 4:00:00 AM 5.5505 4.4358
4/28/2023 4:15:00 AM 5.5471 4.4679
4/28/2023 4:30:00 AM 5.5452 4.5443
4/28/2023 4:45:00 AM 5.5453 4.4879
4/28/2023 5:00:00 AM 5.5444 4.3675
4/28/2023 5:15:00 AM 5.5434 4.3896
4/28/2023 5:30:00 AM 5.5419 4.4053
4/28/2023 5:45:00 AM 5.5412 4.4
4/28/2023 6:00:00 AM 5.5394 4.3135
4/28/2023 6:15:00 AM 5.5356 4.1497
4/28/2023 6:30:00 AM 5.5355 4.1565
4/28/2023 6:45:00 AM 5.5339 4.1952
4/28/2023 7:00:00 AM 5.5329 4.2491
4/28/2023 7:15:00 AM 5.5306 4.639
4/28/2023 7:30:00 AM 5.5298 7.0215
4/28/2023 7:45:00 AM 5.5302 7.3219
4/28/2023 8:00:00 AM 5.5303 5.4803
4/28/2023 8:15:00 AM 5.53 5.1275
4/28/2023 8:30:00 AM 5.5299 5.0638
4/28/2023 8:45:00 AM 5.5272 5
4/28/2023 9:00:00 AM 5.5273 4.6398
4/28/2023 9:15:00 AM 5.526 4.4701
4/28/2023 9:30:00 AM 5.5254 6.2015
4/28/2023 9:45:00 AM 5.5248 7.0978
4/28/2023 10:00:00 AM 5.5252 5.3345
4/28/2023 10:15:00 AM 5.5252 4.6537
4/28/2023 10:30:00 AM 5.5251 4.5697
4/28/2023 10:45:00 AM 5.5254 4.7084
4/28/2023 11:00:00 AM 5.5255 4.4821
4/28/2023 11:15:00 AM 5.5254 4.24
4/28/2023 11:30:00 AM 5.5255 4.1341
4/28/2023 11:45:00 AM 5.5272 4
4/28/2023 12:00:00 PM 5.5261 4.764
4/28/2023 12:15:00 PM 5.5293 5.1555
4/28/2023 12:30:00 PM 5.5305 5.0441
4/28/2023 12:45:00 PM 5.5311 4.6804
4/28/2023 1:00:00 PM 5.5344 4.3089
4/28/2023 1:15:00 PM 5.5357 4.2637
4/28/2023 1:30:00 PM 5.5399 4.3902
4/28/2023 1:45:00 PM 5.5418 4.2633
4/28/2023 2:00:00 PM 5.5452 4.5897
4/28/2023 2:15:00 PM 5.55 4.0427
4/28/2023 2:30:00 PM 5.5531 4.8027
4/28/2023 2:45:00 PM 5.5566 4.5515
4/28/2023 3:00:00 PM 5.5619 4.045
4/28/2023 3:15:00 PM 5.5667 3.7764
4/28/2023 3:30:00 PM 5.57 3.5494
4/28/2023 3:45:00 PM 5.5738 3.6723
4/28/2023 4:00:00 PM 5.5759 4.0131
4/28/2023 4:15:00 PM 5.5813 3.6863
4/28/2023 4:30:00 PM 5.5879 3.4941
4/28/2023 4:45:00 PM 5.5922 3.4826
4/28/2023 5:00:00 PM 5.5964 3.4868
4/28/2023 5:15:00 PM 5.6007 3.5314
4/28/2023 5:30:00 PM 5.6051 3.5197
4/28/2023 5:45:00 PM 5.6056 3.5
4/28/2023 6:00:00 PM 5.6129 4.7389
4/28/2023 6:15:00 PM 5.6158 4.0164
4/28/2023 6:30:00 PM 5.6186 3.7878
4/28/2023 6:45:00 PM 5.6233 3.6849
4/28/2023 7:00:00 PM 5.6276 3.6746
4/28/2023 7:15:00 PM 5.6305 3.625
4/28/2023 7:30:00 PM 5.6331 4.2636
4/28/2023 7:45:00 PM 5.637 3.7412
4/28/2023 8:00:00 PM 5.6381 3.6596
4/28/2023 8:15:00 PM 5.6408 3.6322
4/28/2023 8:30:00 PM 5.6431 3.6295
4/28/2023 8:45:00 PM 5.642 3.6
4/28/2023 9:00:00 PM 5.6429 3.7264
4/28/2023 9:15:00 PM 5.6429 3.6511
4/28/2023 9:30:00 PM 5.6463 3.7071
4/28/2023 9:45:00 PM 5.6474 3.6357
4/28/2023 10:00:00 PM 5.6474 3.6522
4/28/2023 10:15:00 PM 5.6474 3.6215
4/28/2023 10:30:00 PM 5.645 3.6853
4/28/2023 10:45:00 PM 5.6428 3.6601
4/28/2023 11:00:00 PM 5.6431 3.6785
4/28/2023 11:15:00 PM 5.6425 3.6556
4/28/2023 11:30:00 PM 5.6385 3.7505
4/28/2023 11:45:00 PM 5.6364 3.6999
4/29/2023 12:00:00 AM 5.6343 3.9594
4/29/2023 12:15:00 AM 5.6337 3.8135
4/29/2023 12:30:00 AM 5.6312 3.7593
4/29/2023 12:45:00 AM 5.6282 3.7598
4/29/2023 1:00:00 AM 5.6255 3.8173
4/29/2023 1:15:00 AM 5.6236 3.8863
4/29/2023 1:30:00 AM 5.6228 4.0524
4/29/2023 1:45:00 AM 5.6197 4.1292
4/29/2023 2:00:00 AM 5.6184 4.1065
4/29/2023 2:15:00 AM 5.6182 4.0389
4/29/2023 2:30:00 AM 5.6153 4.2227
4/29/2023 2:45:00 AM 5.6126 4.2
4/29/2023 3:00:00 AM 5.6134 4.0887
4/29/2023 3:15:00 AM 5.612 4.0694
4/29/2023 3:30:00 AM 5.6092 4.0658
4/29/2023 3:45:00 AM 5.6086 4.1505
4/29/2023 4:00:00 AM 5.6084 4.2077
4/29/2023 4:15:00 AM 5.6089 4.3162
4/29/2023 4:30:00 AM 5.6057 4.2814
4/29/2023 4:45:00 AM 5.6041 4.4167
4/29/2023 5:00:00 AM 5.6036 4.2899
4/29/2023 5:15:00 AM 5.6006 4.2491
4/29/2023 5:30:00 AM 5.5991 4.207
4/29/2023 5:45:00 AM 5.6 4.3
4/29/2023 6:00:00 AM 5.5936 4.1398
4/29/2023 6:15:00 AM 5.5938 4.1586
4/29/2023 6:30:00 AM 5.5937 4.0948
4/29/2023 6:45:00 AM 5.5903 4.0031
4/29/2023 7:00:00 AM 5.5888 3.9586
4/29/2023 7:15:00 AM 5.5885 3.844
4/29/2023 7:30:00 AM 5.5838 3.8487
4/29/2023 7:45:00 AM 5.5842 3.7669
4/29/2023 8:00:00 AM 5.5821 3.752
4/29/2023 8:15:00 AM 5.5792 3.7044
4/29/2023 8:30:00 AM 5.5788 3.654
4/29/2023 8:45:00 AM 5.5804 3.6
4/29/2023 9:00:00 AM 5.5742 3.5673
4/29/2023 9:15:00 AM 5.574 3.4504
4/29/2023 9:30:00 AM 5.574 3.4341
4/29/2023 9:45:00 AM 5.5738 3.4657
4/29/2023 10:00:00 AM 5.5711 3.4329
4/29/2023 10:15:00 AM 5.5692 3.3284
4/29/2023 10:30:00 AM 5.5691 3.3477
4/29/2023 10:45:00 AM 5.5657 3.3421
4/29/2023 11:00:00 AM 5.5644 3.3362
4/29/2023 11:15:00 AM 5.5645 3.3459
4/29/2023 11:30:00 AM 5.5608 3.3308
4/29/2023 11:45:00 AM 5.5608 3.3
4/29/2023 12:00:00 PM 5.5588 3.3361
4/29/2023 12:15:00 PM 5.5561 3.4053
4/29/2023 12:30:00 PM 5.5554 3.4114
4/29/2023 12:45:00 PM 5.5552 3.3396
4/29/2023 1:00:00 PM 5.5551 3.337
4/29/2023 1:15:00 PM 5.5551 3.3337
4/29/2023 1:30:00 PM 5.5546 3.3396
4/29/2023 1:45:00 PM 5.5568 3.3021
4/29/2023 2:00:00 PM 5.5594 3.2339
4/29/2023 2:15:00 PM 5.5598 3.2385
4/29/2023 2:30:00 PM 5.5617 3.2959
4/29/2023 2:45:00 PM 5.5647 3.3221
4/29/2023 3:00:00 PM 5.5656 3.3574
4/29/2023 3:15:00 PM 5.5689 3.8154
4/29/2023 3:30:00 PM 5.5706 3.8961
4/29/2023 3:45:00 PM 5.5755 3.6696
4/29/2023 4:00:00 PM 5.5811 3.8079
4/29/2023 4:15:00 PM 5.5866 4.2094
4/29/2023 4:30:00 PM 5.5914 3.8721
4/29/2023 4:45:00 PM 5.5969 3.6136
4/29/2023 5:00:00 PM 5.6028 3.5467
4/29/2023 5:15:00 PM 5.6082 3.4842
4/29/2023 5:30:00 PM 5.6143 3.4632
4/29/2023 5:45:00 PM 5.6196 3.5
4/29/2023 6:00:00 PM 5.623 3.4487
4/29/2023 6:15:00 PM 5.6271 3.372
4/29/2023 6:30:00 PM 5.631 3.3995
4/29/2023 6:45:00 PM 5.6335 3.3472
4/29/2023 7:00:00 PM 5.6378 3.3013
4/29/2023 7:15:00 PM 5.6383 3.2624
4/29/2023 7:30:00 PM 5.6422 3.271
4/29/2023 7:45:00 PM 5.6429 3.2775
4/29/2023 8:00:00 PM 5.6432 3.306
4/29/2023 8:15:00 PM 5.6427 3.3308
4/29/2023 8:30:00 PM 5.6437 3.392
4/29/2023 8:45:00 PM 5.6476 3.5
4/29/2023 9:00:00 PM 5.6442 3.9573
4/29/2023 9:15:00 PM 5.6449 3.9612
4/29/2023 9:30:00 PM 5.6428 3.9669
4/29/2023 9:45:00 PM 5.6425 4.0624
4/29/2023 10:00:00 PM 5.6426 4.319
4/29/2023 10:15:00 PM 5.6388 4.2404
4/29/2023 10:30:00 PM 5.6379 4.4376
4/29/2023 10:45:00 PM 5.6354 4.4243
4/29/2023 11:00:00 PM 5.6336 4.3429
4/29/2023 11:15:00 PM 5.6306 4.4943
4/29/2023 11:30:00 PM 5.6283 4.5326
4/29/2023 11:45:00 PM 5.628 4.5
4/30/2023 12:00:00 AM 5.6222 4.4004
4/30/2023 12:15:00 AM 5.6183 4.3236
4/30/2023 12:30:00 AM 5.6172 4.5253
4/30/2023 12:45:00 AM 5.6135 4.418
4/30/2023 1:00:00 AM 5.6126 4.2197
4/30/2023 1:15:00 AM 5.6085 7.7902
4/30/2023 1:30:00 AM 5.6081 4.4734
4/30/2023 1:45:00 AM 5.6044 4.1021
4/30/2023 2:00:00 AM 5.6037 4.1181
4/30/2023 2:15:00 AM 5.6036 4.1048
4/30/2023 2:30:00 AM 5.5992 4.3447
4/30/2023 2:45:00 AM 5.6 4.4
4/30/2023 3:00:00 AM 5.5987 4.2208
4/30/2023 3:15:00 AM 5.5957 4.0611
4/30/2023 3:30:00 AM 5.5939 4.1284
4/30/2023 3:45:00 AM 5.5941 4.0943
4/30/2023 4:00:00 AM 5.5934 4.1259
4/30/2023 4:15:00 AM 5.5902 4.2338
4/30/2023 4:30:00 AM 5.589 4.2206
4/30/2023 4:45:00 AM 5.5884 4.1128
4/30/2023 5:00:00 AM 5.5868 4.3076
4/30/2023 5:15:00 AM 5.5853 4.3801
4/30/2023 5:30:00 AM 5.5842 4.3656
4/30/2023 5:45:00 AM 5.586 4.2
4/30/2023 6:00:00 AM 5.581 4.231
4/30/2023 6:15:00 AM 5.5752 4.0759
4/30/2023 6:30:00 AM 5.5726 3.9883
4/30/2023 6:45:00 AM 5.569 3.962
4/30/2023 7:00:00 AM 5.5684 3.9814
4/30/2023 7:15:00 AM 5.5657 4.1592
4/30/2023 7:30:00 AM 5.5642 4.1966
4/30/2023 7:45:00 AM 5.5645 4.221
4/30/2023 8:00:00 AM 5.5646 4.3497
4/30/2023 8:15:00 AM 5.5645 4.4454
4/30/2023 8:30:00 AM 5.563 4.3971
4/30/2023 8:45:00 AM 5.5608 4.4
4/30/2023 9:00:00 AM 5.5595 4.6239
4/30/2023 9:15:00 AM 5.5598 4.588
4/30/2023 9:30:00 AM 5.5596 4.7452
4/30/2023 9:45:00 AM 5.5621 4.7226
4/30/2023 10:00:00 AM 5.5644 4.968
4/30/2023 10:15:00 AM 5.5645 4.848
4/30/2023 10:30:00 AM 5.5648 5.5249
4/30/2023 10:45:00 AM 5.5654 6.4326
4/30/2023 11:00:00 AM 5.5679 7.2776
4/30/2023 11:15:00 AM 5.5698 8.0852
4/30/2023 11:30:00 AM 5.5697 10.0358
4/30/2023 11:45:00 AM 5.5678 10.9
4/30/2023 12:00:00 PM 5.5743 14.6955
4/30/2023 12:15:00 PM 5.5771 17.8728
4/30/2023 12:30:00 PM 5.5794 11.5428
4/30/2023 12:45:00 PM 5.5795 10.8451
4/30/2023 1:00:00 PM 5.5792 11.8976
4/30/2023 1:15:00 PM 5.5795 12.9682
4/30/2023 1:30:00 PM 5.5794 14.4916
4/30/2023 1:45:00 PM 5.5795 16.0764
4/30/2023 2:00:00 PM 5.5792 16.6089
4/30/2023 2:15:00 PM 5.577 16.9479
4/30/2023 2:30:00 PM 5.5746 17.3886
4/30/2023 2:45:00 PM 5.5741 17.282
4/30/2023 3:00:00 PM 5.5708 17.2655
4/30/2023 3:15:00 PM 5.5695 18.8225
4/30/2023 3:30:00 PM 5.5697 20.9267
4/30/2023 3:45:00 PM 5.5659 22.6641
4/30/2023 4:00:00 PM 5.5648 22.7964
4/30/2023 4:15:00 PM 5.5647 32.0788
4/30/2023 4:30:00 PM 5.5647 38.4764
4/30/2023 4:45:00 PM 5.5646 47.8364
4/30/2023 5:00:00 PM 5.5605 56.7044
4/30/2023 5:15:00 PM 5.5596 63.7634
4/30/2023 5:30:00 PM 5.5584 68.9899
4/30/2023 5:45:00 PM 5.5538 68.8
4/30/2023 6:00:00 PM 5.5501 66.5518
4/30/2023 6:15:00 PM 5.5449 61.9106
4/30/2023 6:30:00 PM 5.5403 55.1826
4/30/2023 6:45:00 PM 5.5363 48.3057
4/30/2023 7:00:00 PM 5.5347 43.1081
4/30/2023 7:15:00 PM 5.5306 40.8582
4/30/2023 7:30:00 PM 5.527 40.0435
4/30/2023 7:45:00 PM 5.5221 42.1303
4/30/2023 8:00:00 PM 5.515 46.2337
4/30/2023 8:15:00 PM 5.5145 69.2689
4/30/2023 8:30:00 PM 5.5102 122.9175
4/30/2023 8:45:00 PM 5.509 165.1999
4/30/2023 9:00:00 PM 5.5031 406.0501
4/30/2023 9:15:00 PM 5.4961 673.2266
4/30/2023 9:30:00 PM 5.489 992.8153
4/30/2023 9:45:00 PM 5.4816 999.9231
4/30/2023 10:00:00 PM 5.4731 999.9178
4/30/2023 10:15:00 PM 5.4669 999.9159
4/30/2023 10:30:00 PM 5.4579 999.9273
4/30/2023 10:45:00 PM 5.449 999.9104
4/30/2023 11:00:00 PM 5.4415 999.9218
4/30/2023 11:15:00 PM 5.4365 999.9334
4/30/2023 11:30:00 PM 5.4309 999.9491
4/30/2023 11:45:00 PM 5.4292 1000
5/1/2023 12:00:00 AM 5.4191 999.9236
5/1/2023 12:15:00 AM 5.4124 999.9195
5/1/2023 12:30:00 AM 5.4083 999.9296
5/1/2023 12:45:00 AM 5.4032 999.9254
5/1/2023 1:00:00 AM 5.3986 999.9355
5/1/2023 1:15:00 AM 5.3927 999.94
5/1/2023 1:30:00 AM 5.3864 999.9378
5/1/2023 1:45:00 AM 5.3799 999.9187
5/1/2023 2:00:00 AM 5.3711 975.9681
5/1/2023 2:15:00 AM 5.361 866.2677
5/1/2023 2:30:00 AM 5.3526 827.4408
5/1/2023 2:45:00 AM 5.3508 815.8982
5/1/2023 3:00:00 AM 5.3353 808.7249
5/1/2023 3:15:00 AM 5.3276 793.0467
5/1/2023 3:30:00 AM 5.3211 776.1835
5/1/2023 3:45:00 AM 5.3122 751.6261
5/1/2023 4:00:00 AM 5.304 736.1518
5/1/2023 4:15:00 AM 5.2945 723.6613
5/1/2023 4:30:00 AM 5.2873 713.2439
5/1/2023 4:45:00 AM 5.2788 694.8791
5/1/2023 5:00:00 AM 5.2704 673.4837
5/1/2023 5:15:00 AM 5.2626 650.159
5/1/2023 5:30:00 AM 5.2561 625.9998
5/1/2023 5:45:00 AM 5.2556 605.9
5/1/2023 6:00:00 AM 5.264 558.6074
5/1/2023 6:15:00 AM 5.2523 520.408
5/1/2023 6:30:00 AM 5.2431 485.4611
5/1/2023 6:45:00 AM 5.2363 450.7481
5/1/2023 7:00:00 AM 5.2305 415.848
5/1/2023 7:15:00 AM 5.2245 381.4679
5/1/2023 7:30:00 AM 5.2209 349.5991
5/1/2023 7:45:00 AM 5.2179 321.0182
5/1/2023 8:00:00 AM 5.2152 298.2431
5/1/2023 8:15:00 AM 5.2142 275.0998
5/1/2023 8:30:00 AM 5.2101 255.5667
5/1/2023 8:45:00 AM 5.2024 246.3999
5/1/2023 9:00:00 AM 5.2058 220.5404
5/1/2023 9:15:00 AM 5.2057 206.9399
5/1/2023 9:30:00 AM 5.2047 197.6148
5/1/2023 9:45:00 AM 5.2037 188.258
5/1/2023 10:00:00 AM 5.2004 183.7501
5/1/2023 10:15:00 AM 5.1966 177.0603
5/1/2023 10:30:00 AM 5.1955 173.0675
5/1/2023 10:45:00 AM 5.1934 171.0466
5/1/2023 11:00:00 AM 5.1913 169.4353
5/1/2023 11:15:00 AM 5.1887 169.9207
5/1/2023 11:30:00 AM 5.1858 175.8994
5/1/2023 11:45:00 AM 5.1814 176.9
5/1/2023 12:00:00 PM 5.1778 190.1283
5/1/2023 12:15:00 PM 5.1742 192.1809
5/1/2023 12:30:00 PM 5.1693 194.833
5/1/2023 12:45:00 PM 5.1649 200.0393
5/1/2023 1:00:00 PM 5.1616 197.7157
5/1/2023 1:15:00 PM 5.1564 195.411
5/1/2023 1:30:00 PM 5.1523 195.7772
5/1/2023 1:45:00 PM 5.1518 192.9066
5/1/2023 2:00:00 PM 5.1472 188.5594
5/1/2023 2:15:00 PM 5.1429 181.3528
5/1/2023 2:30:00 PM 5.139 179.529
5/1/2023 2:45:00 PM 5.1368 176.7066
5/1/2023 3:00:00 PM 5.1352 171.9267
5/1/2023 3:15:00 PM 5.1319 169.5433
5/1/2023 3:30:00 PM 5.1293 170.481
5/1/2023 3:45:00 PM 5.1267 170.0292
5/1/2023 4:00:00 PM 5.1232 175.0854
5/1/2023 4:15:00 PM 5.1218 177.4237
5/1/2023 4:30:00 PM 5.118 183.6278
5/1/2023 4:45:00 PM 5.1169 185.3995
5/1/2023 5:00:00 PM 5.1134 186.4273
5/1/2023 5:15:00 PM 5.1112 186.3597
5/1/2023 5:30:00 PM 5.107 184.8066
5/1/2023 5:45:00 PM 5.1044 182.7
5/1/2023 6:00:00 PM 5.1017 176.899
5/1/2023 6:15:00 PM 5.1013 173.8187
5/1/2023 6:30:00 PM 5.0975 170.0037
5/1/2023 6:45:00 PM 5.0973 164.8097
5/1/2023 7:00:00 PM 5.0966 162.9811
5/1/2023 7:15:00 PM 5.0927 162.602
5/1/2023 7:30:00 PM 5.0921 158.5966
5/1/2023 7:45:00 PM 5.0918 155.9006
5/1/2023 8:00:00 PM 5.0899 154.9227
5/1/2023 8:15:00 PM 5.0877 158.1441
5/1/2023 8:30:00 PM 5.0868 165.5848
5/1/2023 8:45:00 PM 5.0876 167.6997
5/1/2023 9:00:00 PM 5.0819 174.5078
5/1/2023 9:15:00 PM 5.0779 177.6697
5/1/2023 9:30:00 PM 5.0762 185.0768
5/1/2023 9:45:00 PM 5.0729 189.3468
5/1/2023 10:00:00 PM 5.069 192.2212
5/1/2023 10:15:00 PM 5.0668 195.0429
5/1/2023 10:30:00 PM 5.0623 198.325
5/1/2023 10:45:00 PM 5.0619 199.4527
5/1/2023 11:00:00 PM 5.0582 199.7664
5/1/2023 11:15:00 PM 5.0578 199.8995
5/1/2023 11:30:00 PM 5.0536 199.91
5/1/2023 11:45:00 PM 5.054 196.1
5/2/2023 12:00:00 AM 5.0521 194.9023
5/2/2023 12:15:00 AM 5.0485 190.4841
5/2/2023 12:30:00 AM 5.0484 189.165
5/2/2023 12:45:00 AM 5.047 184.9613
5/2/2023 1:00:00 AM 5.0429 181.7683
5/2/2023 1:15:00 AM 5.0438 177.7381
5/2/2023 1:30:00 AM 5.0254 176.071
5/2/2023 1:45:00 AM 5.0244 171.2638
5/2/2023 2:00:00 AM 5.0236 168.8425
5/2/2023 2:15:00 AM 5.0236 165.8866
5/2/2023 2:30:00 AM 5.0222 163.2273
5/2/2023 2:45:00 AM 5.0232 161.6001
5/2/2023 3:00:00 AM 5.0198 157.1039
5/2/2023 3:15:00 AM 5.0195 154.6517
5/2/2023 3:30:00 AM 5.0225 151.665
5/2/2023 3:45:00 AM 5.0337 148.2492
5/2/2023 4:00:00 AM 5.034 145.8351
5/2/2023 4:15:00 AM 5.0313 142.4736
5/2/2023 4:30:00 AM 5.0326 140.737
5/2/2023 4:45:00 AM 5.0333 137.871
5/2/2023 5:00:00 AM 5.0334 135.2639
5/2/2023 5:15:00 AM 5.0339 132.7091
5/2/2023 5:30:00 AM 5.0412 130.0546
5/2/2023 5:45:00 AM 5.0806 127.7
5/2/2023 6:00:00 AM 5.2189 123.5642
5/2/2023 6:15:00 AM 5.2577 120.591
5/2/2023 6:30:00 AM 5.2862 119.0044
5/2/2023 6:45:00 AM 5.2929 115.7757
5/2/2023 7:00:00 AM 5.3013 112.8012
5/2/2023 7:15:00 AM 5.3016 109.3462
5/2/2023 7:30:00 AM 5.2996 106.8447
5/2/2023 7:45:00 AM 5.3097 104.1928
5/2/2023 8:00:00 AM 5.304 102.7293
5/2/2023 8:15:00 AM 5.3006 103.5085
5/2/2023 8:30:00 AM 5.2967 98.5717
5/2/2023 8:45:00 AM 5.2822 96.5
5/2/2023 9:00:00 AM 5.3011 93.6628
5/2/2023 9:15:00 AM 5.3002 91.8549
5/2/2023 9:30:00 AM 5.2976 89.0017
5/2/2023 9:45:00 AM 5.2804 86.0288
5/2/2023 10:00:00 AM 5.2635 84.108
5/2/2023 10:15:00 AM 5.2623 81.4786
5/2/2023 10:30:00 AM 5.2469 79.2825
5/2/2023 10:45:00 AM 5.2546 78.3095
5/2/2023 11:00:00 AM 5.2432 77.1311
5/2/2023 11:15:00 AM 5.2449 74.9627
5/2/2023 11:30:00 AM 5.233 73.5075
5/2/2023 11:45:00 AM 5.2304 72.6
5/2/2023 12:00:00 PM 5.2444 70.547
5/2/2023 12:15:00 PM 5.2551 69.1968
5/2/2023 12:30:00 PM 5.236 68.1543
5/2/2023 12:45:00 PM 5.2341 66.7722
5/2/2023 1:00:00 PM 5.222 65.1743
5/2/2023 1:15:00 PM 5.2252 63.2886
5/2/2023 1:30:00 PM 5.2156 62.3545
5/2/2023 1:45:00 PM 5.225 60.7932
5/2/2023 2:00:00 PM 5.2194 59.4867
5/2/2023 2:15:00 PM 5.2142 58.0754
5/2/2023 2:30:00 PM 5.227 57.5098
5/2/2023 2:45:00 PM 5.2165 56.0448
5/2/2023 3:00:00 PM 5.2266 55.0017
5/2/2023 3:15:00 PM 5.2383 53.8892
5/2/2023 3:30:00 PM 5.2236 52.7821
5/2/2023 3:45:00 PM 5.2317 51.3319
5/2/2023 4:00:00 PM 5.2162 50.835
5/2/2023 4:15:00 PM 5.2255 50.0192
5/2/2023 4:30:00 PM 5.2163 49.8329
5/2/2023 4:45:00 PM 5.2259 49.4632
5/2/2023 5:00:00 PM 5.2162 48.3371
5/2/2023 5:15:00 PM 5.2273 47.2065
5/2/2023 5:30:00 PM 5.2161 45.9955
5/2/2023 5:45:00 PM 5.2248 45.6
5/2/2023 6:00:00 PM 5.2583 45.0508
5/2/2023 6:15:00 PM 5.2522 44.1772
5/2/2023 6:30:00 PM 5.2555 43.3472
5/2/2023 6:45:00 PM 5.2474 42.4397
5/2/2023 7:00:00 PM 5.2544 41.7815
5/2/2023 7:15:00 PM 5.2438 41.6743
5/2/2023 7:30:00 PM 5.2486 41.0911
5/2/2023 7:45:00 PM 5.2412 41.0171
5/2/2023 8:00:00 PM 5.246 40.7654
5/2/2023 8:15:00 PM 5.2425 40.7097
5/2/2023 8:30:00 PM 5.2468 40.3708
5/2/2023 8:45:00 PM 5.236 39.9
5/2/2023 9:00:00 PM 5.2411 39.968
5/2/2023 9:15:00 PM 5.2379 38.8247
5/2/2023 9:30:00 PM 5.2521 38.9671
5/2/2023 9:45:00 PM 5.2469 39.2768
5/2/2023 10:00:00 PM 5.2543 39.4965
5/2/2023 10:15:00 PM 5.2455 37.9473
5/2/2023 10:30:00 PM 5.2495 37.9642
5/2/2023 10:45:00 PM 5.2415 37.5502
5/2/2023 11:00:00 PM 5.2448 36.9736
5/2/2023 11:15:00 PM 5.2404 36.3735
5/2/2023 11:30:00 PM 5.2463 36.0581
5/2/2023 11:45:00 PM 5.2458 35.4
5/3/2023 12:00:00 AM 5.2423 35.7067
5/3/2023 12:15:00 AM 5.2501 35.5066
5/3/2023 12:30:00 AM 5.2444 35.0937
5/3/2023 12:45:00 AM 5.2592 34.8072
5/3/2023 1:00:00 AM 5.2589 34.9081
5/3/2023 1:15:00 AM 5.2529 34.2689
5/3/2023 1:30:00 AM 5.2688 34.4783
5/3/2023 1:45:00 AM 5.2595 34.7935
5/3/2023 2:00:00 AM 5.2585 35.0719
5/3/2023 2:15:00 AM 5.2699 33.8275
5/3/2023 2:30:00 AM 5.2574 33.188
5/3/2023 2:45:00 AM 5.2598 33.3
5/3/2023 3:00:00 AM 5.2746 33.2488
5/3/2023 3:15:00 AM 5.2631 33.9043
5/3/2023 3:30:00 AM 5.2633 33.4733
5/3/2023 3:45:00 AM 5.2605 32.4665
5/3/2023 4:00:00 AM 5.2613 32.4453
5/3/2023 4:15:00 AM 5.2587 32.4954
5/3/2023 4:30:00 AM 5.2564 32.62
5/3/2023 4:45:00 AM 5.2561 32.1112
5/3/2023 5:00:00 AM 5.2654 31.7753
5/3/2023 5:15:00 AM 5.2586 30.6062
5/3/2023 5:30:00 AM 5.2626 30.6723
5/3/2023 5:45:00 AM 5.257 31.0999
5/3/2023 6:00:00 AM 5.2573 30.8253
5/3/2023 6:15:00 AM 5.2542 30.3052
5/3/2023 6:30:00 AM 5.2561 29.9214
5/3/2023 6:45:00 AM 5.255 28.8206
5/3/2023 7:00:00 AM 5.2548 29.0134
5/3/2023 7:15:00 AM 5.2564 28.8518
5/3/2023 7:30:00 AM 5.2633 28.5092
5/3/2023 7:45:00 AM 5.258 28.1786
5/3/2023 8:00:00 AM 5.2592 27.2556
5/3/2023 8:15:00 AM 5.2577 26.5074
5/3/2023 8:30:00 AM 5.2628 26.5209
5/3/2023 8:45:00 AM 5.2612 26.3
5/3/2023 9:00:00 AM 5.2627 27.953
5/3/2023 9:15:00 AM 5.2672 26.2717
5/3/2023 9:30:00 AM 5.272 25.6942
5/3/2023 9:45:00 AM 5.2684 24.6639
5/3/2023 10:00:00 AM 5.2693 24.1465
5/3/2023 10:15:00 AM 5.2758 24.0021
5/3/2023 10:30:00 AM 5.2768 23.4354
5/3/2023 10:45:00 AM 5.276 22.6545
5/3/2023 11:00:00 AM 5.2837 22.2036
5/3/2023 11:15:00 AM 5.2928 21.7879
5/3/2023 11:30:00 AM 5.2864 20.9289
5/3/2023 11:45:00 AM 5.2864 20.6
5/3/2023 12:00:00 PM 5.2832 20.5131
5/3/2023 12:15:00 PM 5.2887 20.4545
5/3/2023 12:30:00 PM 5.2872 20.1914
5/3/2023 12:45:00 PM 5.2896 19.8545
5/3/2023 1:00:00 PM 5.2879 19.675
5/3/2023 1:15:00 PM 5.2911 19.3345
5/3/2023 1:30:00 PM 5.2923 19.0652
5/3/2023 1:45:00 PM 5.2995 18.4504
5/3/2023 2:00:00 PM 5.2897 18.635
5/3/2023 2:15:00 PM 5.2835 19.1027
5/3/2023 2:30:00 PM 5.2819 19.3624
5/3/2023 2:45:00 PM 5.278 18.5471
5/3/2023 3:00:00 PM 5.2738 18.1025
5/3/2023 3:15:00 PM 5.2727 17.8242
5/3/2023 3:30:00 PM 5.2727 17.7725
5/3/2023 3:45:00 PM 5.2729 17.7339
5/3/2023 4:00:00 PM 5.2718 17.7601
5/3/2023 4:15:00 PM 5.2682 16.8924
5/3/2023 4:30:00 PM 5.2678 16.6524
5/3/2023 4:45:00 PM 5.2679 16.6879
5/3/2023 5:00:00 PM 5.2679 16.6226
5/3/2023 5:15:00 PM 5.2701 16.3941
5/3/2023 5:30:00 PM 5.273 16.0653
5/3/2023 5:45:00 PM 5.271 15.8
5/3/2023 6:00:00 PM 5.2727 15.734
5/3/2023 6:15:00 PM 5.2733 15.8349
5/3/2023 6:30:00 PM 5.2759 15.9069
5/3/2023 6:45:00 PM 5.278 15.8568
5/3/2023 7:00:00 PM 5.2778 15.7341
5/3/2023 7:15:00 PM 5.2797 15.3511
5/3/2023 7:30:00 PM 5.2823 15.3618
5/3/2023 7:45:00 PM 5.2822 15.336
5/3/2023 8:00:00 PM 5.2823 15.5402
5/3/2023 8:15:00 PM 5.2846 15.1051
5/3/2023 8:30:00 PM 5.2868 15.1787
5/3/2023 8:45:00 PM 5.285 15
5/3/2023 9:00:00 PM 5.2876 15.9902
5/3/2023 9:15:00 PM 5.2904 16.2217
5/3/2023 9:30:00 PM 5.2917 16.19
5/3/2023 9:45:00 PM 5.2919 16.0829
5/3/2023 10:00:00 PM 5.2941 15.4945
5/3/2023 10:15:00 PM 5.2965 15.5616
5/3/2023 10:30:00 PM 5.2967 15.6481
5/3/2023 10:45:00 PM 5.2967 16.5317
5/3/2023 11:00:00 PM 5.298 16.051
5/3/2023 11:15:00 PM 5.2984 15.6345
5/3/2023 11:30:00 PM 5.3008 15.2673
5/3/2023 11:45:00 PM 5.3032 15.1
5/4/2023 12:00:00 AM 5.3014 15.9404
5/4/2023 12:15:00 AM 5.3013 16.0478
5/4/2023 12:30:00 AM 5.3014 16.1785
5/4/2023 12:45:00 AM 5.3024 15.7383
5/4/2023 1:00:00 AM 5.3062 16.8614
5/4/2023 1:15:00 AM 5.3061 16.0567
5/4/2023 1:30:00 AM 5.306 15.6676
5/4/2023 1:45:00 AM 5.3068 15.4582
5/4/2023 2:00:00 AM 5.3102 34.3954
5/4/2023 2:15:00 AM 5.3112 30.1688
5/4/2023 2:30:00 AM 5.3111 48.7175
5/4/2023 2:45:00 AM 5.313 36.4999
5/4/2023 3:00:00 AM 5.3113 47.0843
5/4/2023 3:15:00 AM 5.3117 18.1566
5/4/2023 3:30:00 AM 5.3117 15.3279
5/4/2023 3:45:00 AM 5.3108 15.0016
5/4/2023 4:00:00 AM 5.3108 14.8898
5/4/2023 4:15:00 AM 5.3108 14.7581
5/4/2023 4:30:00 AM 5.3108 15.0034
5/4/2023 4:45:00 AM 5.3112 15.5994
5/4/2023 5:00:00 AM 5.3107 15.7409
5/4/2023 5:15:00 AM 5.3113 15.4975
5/4/2023 5:30:00 AM 5.3112 16.6789
5/4/2023 5:45:00 AM 5.313 16.8
5/4/2023 6:00:00 AM 5.3113 16.4784
5/4/2023 6:15:00 AM 5.3115 15.7139
5/4/2023 6:30:00 AM 5.3114 15.4779
5/4/2023 6:45:00 AM 5.3108 15.1819
5/4/2023 7:00:00 AM 5.3093 15.0548
5/4/2023 7:15:00 AM 5.3074 14.8895
5/4/2023 7:30:00 AM 5.3063 14.7473
5/4/2023 7:45:00 AM 5.3064 14.5884
5/4/2023 8:00:00 AM 5.306 14.3318
5/4/2023 8:15:00 AM 5.3063 14.1283
5/4/2023 8:30:00 AM 5.3065 13.8197
5/4/2023 8:45:00 AM 5.3046 13.6
5/4/2023 9:00:00 AM 5.3065 13.4329
5/4/2023 9:15:00 AM 5.3063 13.3369
5/4/2023 9:30:00 AM 5.3064 13.0662
5/4/2023 9:45:00 AM 5.3061 12.6089
5/4/2023 10:00:00 AM 5.3059 12.4909
5/4/2023 10:15:00 AM 5.3053 12.5915
5/4/2023 10:30:00 AM 5.3047 18.3456
5/4/2023 10:45:00 AM 5.305 15.3336
5/4/2023 11:00:00 AM 5.302 12.5481
5/4/2023 11:15:00 AM 5.3015 11.7166
5/4/2023 11:30:00 AM 5.3024 11.4986
5/4/2023 11:45:00 AM 5.3018 11.2
5/4/2023 12:00:00 PM 5.301 10.9689
5/4/2023 12:15:00 PM 5.3015 10.5788
5/4/2023 12:30:00 PM 5.3015 10.8658
5/4/2023 12:45:00 PM 5.299 10.5629
5/4/2023 1:00:00 PM 5.2965 10.8053
5/4/2023 1:15:00 PM 5.2966 10.7175
5/4/2023 1:30:00 PM 5.2964 10.5878
5/4/2023 1:45:00 PM 5.297 10.6078
5/4/2023 2:00:00 PM 5.2967 10.6322
5/4/2023 2:15:00 PM 5.296 10.7207
5/4/2023 2:30:00 PM 5.2939 11.1699
5/4/2023 2:45:00 PM 5.2955 11.2089
5/4/2023 3:00:00 PM 5.2959 11.0994
5/4/2023 3:15:00 PM 5.2942 10.8517
5/4/2023 3:30:00 PM 5.2939 10.9515
5/4/2023 3:45:00 PM 5.2941 10.4602
5/4/2023 4:00:00 PM 5.2916 10.0914
5/4/2023 4:15:00 PM 5.2917 9.905
5/4/2023 4:30:00 PM 5.2918 10.0515
5/4/2023 4:45:00 PM 5.2915 10.1031
5/4/2023 5:00:00 PM 5.2888 10.2224
5/4/2023 5:15:00 PM 5.2912 10.2111
5/4/2023 5:30:00 PM 5.2918 10.0083
5/4/2023 5:45:00 PM 5.2948 9.9
5/4/2023 6:00:00 PM 5.2923 9.8559
5/4/2023 6:15:00 PM 5.2935 9.7121
5/4/2023 6:30:00 PM 5.2936 9.4246
5/4/2023 6:45:00 PM 5.296 9.2632
5/4/2023 7:00:00 PM 5.2962 9.124
5/4/2023 7:15:00 PM 5.2964 9.0178
5/4/2023 7:30:00 PM 5.2965 9.1653
5/4/2023 7:45:00 PM 5.2965 8.9216
5/4/2023 8:00:00 PM 5.2965 9.4207
5/4/2023 8:15:00 PM 5.2987 9.7985
5/4/2023 8:30:00 PM 5.3013 9.6156
5/4/2023 8:45:00 PM 5.3018 9.6
5/4/2023 9:00:00 PM 5.3014 9.599
5/4/2023 9:15:00 PM 5.3016 9.5894
5/4/2023 9:30:00 PM 5.3016 10.1462
5/4/2023 9:45:00 PM 5.3039 9.8822
5/4/2023 10:00:00 PM 5.306 10.3609
5/4/2023 10:15:00 PM 5.3061 10.6095
5/4/2023 10:30:00 PM 5.3058 10.4018
5/4/2023 10:45:00 PM 5.3069 10.0982
5/4/2023 11:00:00 PM 5.311 10.3127
5/4/2023 11:15:00 PM 5.3111 10.589
5/4/2023 11:30:00 PM 5.3111 11.1076
5/4/2023 11:45:00 PM 5.3074 10.8997
5/5/2023 12:00:00 AM 5.3114 11.0417
5/5/2023 12:15:00 AM 5.3111 10.5948
5/5/2023 12:30:00 AM 5.3111 10.8766
5/5/2023 12:45:00 AM 5.3113 10.5814
5/5/2023 1:00:00 AM 5.3126 10.7153
5/5/2023 1:15:00 AM 5.3144 10.5589
5/5/2023 1:30:00 AM 5.316 10.3003
5/5/2023 1:45:00 AM 5.3178 9.9261
5/5/2023 2:00:00 AM 5.3207 9.8356
5/5/2023 2:15:00 AM 5.3221 9.5678
5/5/2023 2:30:00 AM 5.3251 9.7714
5/5/2023 2:45:00 AM 5.327 9.5997
5/5/2023 3:00:00 AM 5.3257 10.0715
5/5/2023 3:15:00 AM 5.3256 10.4177
5/5/2023 3:30:00 AM 5.3258 10.9876
5/5/2023 3:45:00 AM 5.3255 11.1911
5/5/2023 4:00:00 AM 5.3258 14.7032
5/5/2023 4:15:00 AM 5.3291 28.3594
5/5/2023 4:30:00 AM 5.3302 10.7748
5/5/2023 4:45:00 AM 5.331 9.8556
5/5/2023 5:00:00 AM 5.3348 10.1263
5/5/2023 5:15:00 AM 5.3345 10.0637
5/5/2023 5:30:00 AM 5.335 9.9212
5/5/2023 5:45:00 AM 5.3326 9.9999
5/5/2023 6:00:00 AM 5.3347 9.8331
5/5/2023 6:15:00 AM 5.3338 9.3199
5/5/2023 6:30:00 AM 5.3304 9.0342
5/5/2023 6:45:00 AM 5.3308 8.8158
5/5/2023 7:00:00 AM 5.3312 9.6689
5/5/2023 7:15:00 AM 5.3311 12.5697
5/5/2023 7:30:00 AM 5.3304 9.9264
5/5/2023 7:45:00 AM 5.3308 16.9175
5/5/2023 8:00:00 AM 5.3302 19.1249
5/5/2023 8:15:00 AM 5.33 19.0238
5/5/2023 8:30:00 AM 5.3303 18.6052
5/5/2023 8:45:00 AM 5.3284 18.6001
5/5/2023 9:00:00 AM 5.3301 18.4566
5/5/2023 9:15:00 AM 5.3301 18.5369
5/5/2023 9:30:00 AM 5.3303 13.9605
5/5/2023 9:45:00 AM 5.3299 13.2079
5/5/2023 10:00:00 AM 5.3302 18.895
5/5/2023 10:15:00 AM 5.3289 18.6252
5/5/2023 10:30:00 AM 5.3281 18.079
5/5/2023 10:45:00 AM 5.3284 17.8111
5/5/2023 11:00:00 AM 5.3278 17.8815
5/5/2023 11:15:00 AM 5.328 17.7786
5/5/2023 11:30:00 AM 5.3254 17.4448
5/5/2023 11:45:00 AM 5.3312 17.3
5/5/2023 12:00:00 PM 5.3282 17.034
5/5/2023 12:15:00 PM 5.3288 17.3763
5/5/2023 12:30:00 PM 5.3299 17.1726
5/5/2023 12:45:00 PM 5.3303 17.3928
5/5/2023 1:00:00 PM 5.3305 17.2862
5/5/2023 1:15:00 PM 5.3301 17.9426
5/5/2023 1:30:00 PM 5.3303 17.5036
5/5/2023 1:45:00 PM 5.3303 17.1609
5/5/2023 2:00:00 PM 5.3303 17.0019
5/5/2023 2:15:00 PM 5.3302 16.737
5/5/2023 2:30:00 PM 5.3303 17.0363
5/5/2023 2:45:00 PM 5.3297 17.4997
5/5/2023 3:00:00 PM 5.3305 17.3778
5/5/2023 3:15:00 PM 5.3299 17.2199
5/5/2023 3:30:00 PM 5.3301 17.144
5/5/2023 3:45:00 PM 5.3303 16.929
5/5/2023 4:00:00 PM 5.3302 16.8399
5/5/2023 4:15:00 PM 5.3306 16.8192
5/5/2023 4:30:00 PM 5.3343 16.8464
5/5/2023 4:45:00 PM 5.3351 17.314
5/5/2023 5:00:00 PM 5.3348 17.1729
5/5/2023 5:15:00 PM 5.3347 16.9311
5/5/2023 5:30:00 PM 5.3363 16.7265
5/5/2023 5:45:00 PM 5.334 17
5/5/2023 6:00:00 PM 5.3389 16.8627
5/5/2023 6:15:00 PM 5.3391 17.0186
5/5/2023 6:30:00 PM 5.3399 16.7395
5/5/2023 6:45:00 PM 5.3422 16.5913
5/5/2023 7:00:00 PM 5.3445 16.5563
5/5/2023 7:15:00 PM 5.3447 16.5905
5/5/2023 7:30:00 PM 5.3451 16.6645
5/5/2023 7:45:00 PM 5.3447 16.5418
5/5/2023 8:00:00 PM 5.3471 16.6748
5/5/2023 8:15:00 PM 5.3488 16.3331
5/5/2023 8:30:00 PM 5.3491 16.2466
5/5/2023 8:45:00 PM 5.348 16.3011
5/5/2023 9:00:00 PM 5.3495 16.24
5/5/2023 9:15:00 PM 5.3493 16.3885
5/5/2023 9:30:00 PM 5.3494 16.7238
5/5/2023 9:45:00 PM 5.3492 16.7944
5/5/2023 10:00:00 PM 5.3512 16.5737
5/5/2023 10:15:00 PM 5.3532 16.6675
5/5/2023 10:30:00 PM 5.354 16.9532
5/5/2023 10:45:00 PM 5.3543 17.4691
5/5/2023 11:00:00 PM 5.3542 17.3352
5/5/2023 11:15:00 PM 5.3541 17.5985
5/5/2023 11:30:00 PM 5.3545 17.2053
5/5/2023 11:45:00 PM 5.3536 17.4
5/6/2023 12:00:00 AM 5.3584 17.1866
5/6/2023 12:15:00 AM 5.3593 16.9855
5/6/2023 12:30:00 AM 5.359 17.2634
5/6/2023 12:45:00 AM 5.3592 17.5643
5/6/2023 1:00:00 AM 5.3593 17.5643
5/6/2023 1:15:00 AM 5.3595 17.2782
5/6/2023 1:30:00 AM 5.3598 17.5873
5/6/2023 1:45:00 AM 5.3607 18.1407
5/6/2023 2:00:00 AM 5.3597 17.8223
5/6/2023 2:15:00 AM 5.3597 17.5884
5/6/2023 2:30:00 AM 5.3592 18.7344
5/6/2023 2:45:00 AM 5.3648 18.3001
5/6/2023 3:00:00 AM 5.3604 17.538
5/6/2023 3:15:00 AM 5.3598 17.28
5/6/2023 3:30:00 AM 5.3594 17.5256
5/6/2023 3:45:00 AM 5.3593 17.5715
5/6/2023 4:00:00 AM 5.3591 17.4803
5/6/2023 4:15:00 AM 5.3597 17.8054
5/6/2023 4:30:00 AM 5.3589 18.7635
5/6/2023 4:45:00 AM 5.3594 18.0208
5/6/2023 5:00:00 AM 5.3596 18.4739
5/6/2023 5:15:00 AM 5.3622 18.1896
5/6/2023 5:30:00 AM 5.3637 19.121
5/6/2023 5:45:00 AM 5.3634 19.3001
5/6/2023 6:00:00 AM 5.3641 18.274
5/6/2023 6:15:00 AM 5.3641 17.8834
5/6/2023 6:30:00 AM 5.364 17.4029
5/6/2023 6:45:00 AM 5.3634 17.2752
5/6/2023 7:00:00 AM 5.3639 17.5094
5/6/2023 7:15:00 AM 5.3639 17.2852
5/6/2023 7:30:00 AM 5.3678 16.7518
5/6/2023 7:45:00 AM 5.3688 16.3646
5/6/2023 8:00:00 AM 5.3676 16.3301
5/6/2023 8:15:00 AM 5.3686 15.6438
5/6/2023 8:30:00 AM 5.3688 15.2438
5/6/2023 8:45:00 AM 5.369 15.0999
5/6/2023 9:00:00 AM 5.3687 15.1678
5/6/2023 9:15:00 AM 5.3684 14.929
5/6/2023 9:30:00 AM 5.3671 14.9019
5/6/2023 9:45:00 AM 5.3661 14.9172
5/6/2023 10:00:00 AM 5.364 15.0175
5/6/2023 10:15:00 AM 5.3639 14.6518
5/6/2023 10:30:00 AM 5.3605 14.5509
5/6/2023 10:45:00 AM 5.3601 14.426
5/6/2023 11:00:00 AM 5.3595 14.8834
5/6/2023 11:15:00 AM 5.3595 14.6651
5/6/2023 11:30:00 AM 5.3595 14.6384
5/6/2023 11:45:00 AM 5.3592 14.5999
5/6/2023 12:00:00 PM 5.3582 14.333
5/6/2023 12:15:00 PM 5.3574 14.3466
5/6/2023 12:30:00 PM 5.3567 14.109
5/6/2023 12:45:00 PM 5.3563 13.9637
5/6/2023 1:00:00 PM 5.3593 13.9178
5/6/2023 1:15:00 PM 5.3595 13.8144
5/6/2023 1:30:00 PM 5.359 13.982
5/6/2023 1:45:00 PM 5.3635 16.9046
5/6/2023 2:00:00 PM 5.3623 16.3242
5/6/2023 2:15:00 PM 5.3676 15.4167
5/6/2023 2:30:00 PM 5.374 15.0449
5/6/2023 2:45:00 PM 5.379 14.6525
5/6/2023 3:00:00 PM 5.3853 14.7161
5/6/2023 3:15:00 PM 5.3943 14.3804
5/6/2023 3:30:00 PM 5.4037 14.6318
5/6/2023 3:45:00 PM 5.4104 14.5216
5/6/2023 4:00:00 PM 5.4502 14.6305
5/6/2023 4:15:00 PM 5.4447 14.8677
5/6/2023 4:30:00 PM 5.4601 14.5813
5/6/2023 4:45:00 PM 5.473 14.4179
5/6/2023 5:00:00 PM 5.4986 14.3649
5/6/2023 5:15:00 PM 5.5117 14.3823
5/6/2023 5:30:00 PM 5.5226 14.5239
5/6/2023 5:45:00 PM 5.5314 14.5001
5/6/2023 6:00:00 PM 5.5479 14.4355
5/6/2023 6:15:00 PM 5.5605 14.2989
5/6/2023 6:30:00 PM 5.5636 14.3426
5/6/2023 6:45:00 PM 5.5636 14.2737
5/6/2023 7:00:00 PM 5.5643 14.3304
5/6/2023 7:15:00 PM 5.562 14.2375
5/6/2023 7:30:00 PM 5.5564 14.306
5/6/2023 7:45:00 PM 5.5505 14.0379
5/6/2023 8:00:00 PM 5.5444 14.0038
5/6/2023 8:15:00 PM 5.5406 14.0826
5/6/2023 8:30:00 PM 5.5381 14.2202
5/6/2023 8:45:00 PM 5.5356 14.3
5/6/2023 9:00:00 PM 5.5361 14.5772
5/6/2023 9:15:00 PM 5.5364 14.6153
5/6/2023 9:30:00 PM 5.5356 14.8621
5/6/2023 9:45:00 PM 5.5384 14.8542
5/6/2023 10:00:00 PM 5.5399 14.8301
5/6/2023 10:15:00 PM 5.5368 15.7733
5/6/2023 10:30:00 PM 5.53 16.1908
5/6/2023 10:45:00 PM 5.5282 15.9892
5/6/2023 11:00:00 PM 5.5264 16.5644
5/6/2023 11:15:00 PM 5.5209 16.1471
5/6/2023 11:30:00 PM 5.5189 15.5684
5/6/2023 11:45:00 PM 5.5132 15.7
5/7/2023 12:00:00 AM 5.5071 18.1785
5/7/2023 12:15:00 AM 5.5036 17.5506
5/7/2023 12:30:00 AM 5.5019 16.4252
5/7/2023 12:45:00 AM 5.5051 16.7976
5/7/2023 1:00:00 AM 5.5057 16.7105
5/7/2023 1:15:00 AM 5.5094 16.1563
5/7/2023 1:30:00 AM 5.5098 16.2046
5/7/2023 1:45:00 AM 5.5099 16.1455
5/7/2023 2:00:00 AM 5.5107 15.9677
5/7/2023 2:15:00 AM 5.514 16.8121
5/7/2023 2:30:00 AM 5.5143 16.4922
5/7/2023 2:45:00 AM 5.5076 16.5
5/7/2023 3:00:00 AM 5.51 15.7265
5/7/2023 3:15:00 AM 5.5124 15.236
5/7/2023 3:30:00 AM 5.5197 15.4653
5/7/2023 3:45:00 AM 5.5186 15.9984
5/7/2023 4:00:00 AM 5.5143 49.0102
5/7/2023 4:15:00 AM 5.493 17.0875
5/7/2023 4:30:00 AM 5.4804 16.3315
5/7/2023 4:45:00 AM 5.4756 59.8583
5/7/2023 5:00:00 AM 5.471 15.2006
5/7/2023 5:15:00 AM 5.4713 16.2798
5/7/2023 5:30:00 AM 5.4708 16.1215
5/7/2023 5:45:00 AM 5.4726 15.9
5/7/2023 6:00:00 AM 5.4706 15.6212
5/7/2023 6:15:00 AM 5.471 15.624
5/7/2023 6:30:00 AM 5.4725 14.8265
5/7/2023 6:45:00 AM 5.4755 14.6282
5/7/2023 7:00:00 AM 5.478 14.7344
5/7/2023 7:15:00 AM 5.4811 14.4897
5/7/2023 7:30:00 AM 5.4848 14.075
5/7/2023 7:45:00 AM 5.4895 13.8488
5/7/2023 8:00:00 AM 5.4961 13.8388
5/7/2023 8:15:00 AM 5.5018 13.7776
5/7/2023 8:30:00 AM 5.5065 13.578
5/7/2023 8:45:00 AM 5.5076 13.4001
5/7/2023 9:00:00 AM 5.5103 13.4097
5/7/2023 9:15:00 AM 5.5105 13.2668
5/7/2023 9:30:00 AM 5.5104 13.3379
5/7/2023 9:45:00 AM 5.5109 13.2856
5/7/2023 10:00:00 AM 5.5102 13.3362
5/7/2023 10:15:00 AM 5.5105 13.2014
5/7/2023 10:30:00 AM 5.5114 13.2621
5/7/2023 10:45:00 AM 5.5133 13.8678
5/7/2023 11:00:00 AM 5.5112 15.8413
5/7/2023 11:15:00 AM 5.5115 16.8076
5/7/2023 11:30:00 AM 5.514 16.5955
5/7/2023 11:45:00 AM 5.516 16.7
5/7/2023 12:00:00 PM 5.5231 15.8309
5/7/2023 12:15:00 PM 5.5382 15.1922
5/7/2023 12:30:00 PM 5.5514 14.8864
5/7/2023 12:45:00 PM 5.6113 14.153
5/7/2023 1:00:00 PM 5.6214 13.5001
5/7/2023 1:15:00 PM 5.6512 13.1679
5/7/2023 1:30:00 PM 5.6538 12.8636
5/7/2023 1:45:00 PM 5.6681 12.6301
5/7/2023 2:00:00 PM 5.696 12.7317
5/7/2023 2:15:00 PM 5.7072 12.6049
5/7/2023 2:30:00 PM 5.7232 12.5113
5/7/2023 2:45:00 PM 5.7366 12.6012
5/7/2023 3:00:00 PM 5.7654 12.3317
5/7/2023 3:15:00 PM 5.7748 12.3279
5/7/2023 3:30:00 PM 5.7701 12.855
5/7/2023 3:45:00 PM 5.7827 12.8017
5/7/2023 4:00:00 PM 5.7891 13.0346
5/7/2023 4:15:00 PM 5.8031 14.0025
5/7/2023 4:30:00 PM 5.8074 13.5296
5/7/2023 4:45:00 PM 5.8062 15.1502
5/7/2023 5:00:00 PM 5.7961 16.0688
5/7/2023 5:15:00 PM 5.7992 15.0921
5/7/2023 5:30:00 PM 5.8039 14.6638
5/7/2023 5:45:00 PM 5.8002 14.2
5/7/2023 6:00:00 PM 5.783 14.205
5/7/2023 6:15:00 PM 5.7803 15.362
5/7/2023 6:30:00 PM 5.8043 17.8865
5/7/2023 6:45:00 PM 5.7941 16.3201
5/7/2023 7:00:00 PM 5.7783 15.2755
5/7/2023 7:15:00 PM 5.7655 14.8174
5/7/2023 7:30:00 PM 5.7697 14.4191
5/7/2023 7:45:00 PM 5.7715 13.9426
5/7/2023 8:00:00 PM 5.7622 13.9437
5/7/2023 8:15:00 PM 5.7446 14.1935
5/7/2023 8:30:00 PM 5.7469 13.928
5/7/2023 8:45:00 PM 5.7554 13.6
5/7/2023 9:00:00 PM 5.7563 14.2676
5/7/2023 9:15:00 PM 5.7495 14.0803
5/7/2023 9:30:00 PM 5.7382 14.1978
5/7/2023 9:45:00 PM 5.7365 13.4909
5/7/2023 10:00:00 PM 5.7409 13.8064
5/7/2023 10:15:00 PM 5.7347 13.3926
5/7/2023 10:30:00 PM 5.7312 13.4298
5/7/2023 10:45:00 PM 5.7263 13.8893
5/7/2023 11:00:00 PM 5.7265 16.3211
5/7/2023 11:15:00 PM 5.7299 15.3638
5/7/2023 11:30:00 PM 5.7267 14.8093
5/7/2023 11:45:00 PM 5.7176 14.6
5/8/2023 12:00:00 AM 5.7196 14.3257
5/8/2023 12:15:00 AM 5.719 14.256
5/8/2023 12:30:00 AM 5.7178 14.7325
5/8/2023 12:45:00 AM 5.7264 14.5482
5/8/2023 1:00:00 AM 5.727 13.9504
5/8/2023 1:15:00 AM 5.7245 13.8529
5/8/2023 1:30:00 AM 5.7371 13.6765
5/8/2023 1:45:00 AM 5.7502 13.5828
5/8/2023 2:00:00 AM 5.7457 13.5571
5/8/2023 2:15:00 AM 5.7335 13.6148
5/8/2023 2:30:00 AM 5.7296 13.5141
5/8/2023 2:45:00 AM 5.726 13.5
5/8/2023 3:00:00 AM 5.7273 14.4993
5/8/2023 3:15:00 AM 5.7207 13.8347
5/8/2023 3:30:00 AM 5.7211 13.6351
5/8/2023 3:45:00 AM 5.7221 13.1262
5/8/2023 4:00:00 AM 5.7223 12.824
5/8/2023 4:15:00 AM 5.7252 12.937
5/8/2023 4:30:00 AM 5.7392 13.3131
5/8/2023 4:45:00 AM 5.8071 13.7321
5/8/2023 5:00:00 AM 5.7593 13.1127
5/8/2023 5:15:00 AM 5.748 12.8719
5/8/2023 5:30:00 AM 5.7425 13.2819
5/8/2023 5:45:00 AM 5.7372 13.4
5/8/2023 6:00:00 AM 5.7454 13.3051
5/8/2023 6:15:00 AM 5.7428 13.3156
5/8/2023 6:30:00 AM 5.7364 12.8339
5/8/2023 6:45:00 AM 5.735 12.5597
5/8/2023 7:00:00 AM 5.7336 12.7298
5/8/2023 7:15:00 AM 5.7314 12.841
5/8/2023 7:30:00 AM 5.7263 13.2599
5/8/2023 7:45:00 AM 5.7236 12.9171
5/8/2023 8:00:00 AM 5.7229 12.8487
5/8/2023 8:15:00 AM 5.6942 12.7693
5/8/2023 8:30:00 AM 5.6741 12.9806
5/8/2023 8:45:00 AM 5.6686 12.8
5/8/2023 9:00:00 AM 5.6669 12.608
5/8/2023 9:15:00 AM 5.6721 12.36
5/8/2023 9:30:00 AM 5.6814 15.14
5/8/2023 9:45:00 AM 5.6917 14.3679
5/8/2023 10:00:00 AM 5.7022 13.5421
5/8/2023 10:15:00 AM 5.7057 13.6943
5/8/2023 10:30:00 AM 5.7244 13.2464
5/8/2023 10:45:00 AM 5.7359 13.574
5/8/2023 11:00:00 AM 5.7512 13.3042
5/8/2023 11:15:00 AM 5.7801 12.9664
5/8/2023 11:30:00 AM 5.7913 12.6024
5/8/2023 11:45:00 AM 5.789 12.4
5/8/2023 12:00:00 PM 5.8553 12.5803
5/8/2023 12:15:00 PM 5.8427 12.6635
5/8/2023 12:30:00 PM 5.8412 12.3011
5/8/2023 12:45:00 PM 5.8361 12.4892
5/8/2023 1:00:00 PM 5.8526 13.8085
5/8/2023 1:15:00 PM 5.8856 13.2562
5/8/2023 1:30:00 PM 5.9048 13.8032
5/8/2023 1:45:00 PM 5.9234 17.2946
5/8/2023 2:00:00 PM 5.9247 17.0504
5/8/2023 2:15:00 PM 5.9445 17.673
5/8/2023 2:30:00 PM 5.9946 17.4471
5/8/2023 2:45:00 PM 6.001 15.9742
5/8/2023 3:00:00 PM 6.0106 16.0877
5/8/2023 3:15:00 PM 5.9974 15.8793
5/8/2023 3:30:00 PM 6.4217 15.8889
5/8/2023 3:45:00 PM 6.3517 15.1362
5/8/2023 4:00:00 PM 6.5529 14.7985
5/8/2023 4:15:00 PM 6.3629 14.6647
5/8/2023 4:30:00 PM 6.0134 14.3708
5/8/2023 4:45:00 PM 5.4896 14.5646
5/8/2023 5:00:00 PM 5.4183 14.6231
5/8/2023 5:15:00 PM 5.4889 14.4739
5/8/2023 5:30:00 PM 5.5559 14.1565
5/8/2023 5:45:00 PM 6.4022 14
5/8/2023 6:00:00 PM 5.5795 13.7511
5/8/2023 6:15:00 PM 5.4848 13.6772
5/8/2023 6:30:00 PM 5.5045 13.107
5/8/2023 6:45:00 PM 5.5395 13.1244
5/8/2023 7:00:00 PM 5.5994 12.5524
5/8/2023 7:15:00 PM 5.6518 12.2573
5/8/2023 7:30:00 PM 5.6422 12.3979
5/8/2023 7:45:00 PM 5.584 12.4169
5/8/2023 8:00:00 PM 5.5916 12.6528
5/8/2023 8:15:00 PM 5.6029 13.6141
5/8/2023 8:30:00 PM 5.6108 13.221
5/8/2023 8:45:00 PM 5.6154 13.1
5/8/2023 9:00:00 PM 5.6186 12.9173
5/8/2023 9:15:00 PM 5.6183 12.9632
5/8/2023 9:30:00 PM 5.6163 13.0823
5/8/2023 9:45:00 PM 5.6138 12.7135
5/8/2023 10:00:00 PM 5.6134 13.1148
5/8/2023 10:15:00 PM 5.6088 12.847
5/8/2023 10:30:00 PM 5.6053 14.4542
5/8/2023 10:45:00 PM 5.6034 14.0283
5/8/2023 11:00:00 PM 5.6024 15.7858
5/8/2023 11:15:00 PM 5.5996 17.1092
5/8/2023 11:30:00 PM 5.5987 15.1325
5/8/2023 11:45:00 PM 5.5958 15.1
5/9/2023 12:00:00 AM 5.5967 14.1297
5/9/2023 12:15:00 AM 5.5938 14.5537
5/9/2023 12:30:00 AM 5.5931 14.5208
5/9/2023 12:45:00 AM 5.5893 14.6726
5/9/2023 1:00:00 AM 5.5887 14.3714
5/9/2023 1:15:00 AM 5.5889 13.9879
5/9/2023 1:30:00 AM 5.5862 13.7508
5/9/2023 1:45:00 AM 5.5835 13.3665
5/9/2023 2:00:00 AM 5.5837 13.1418
5/9/2023 2:15:00 AM 5.581 13.1468
5/9/2023 2:30:00 AM 5.5791 14.0753
5/9/2023 2:45:00 AM 5.579 13.6
5/9/2023 3:00:00 AM 5.574 14.396
5/9/2023 3:15:00 AM 5.5727 13.1968
5/9/2023 3:30:00 AM 5.5696 12.6371
5/9/2023 3:45:00 AM 5.569 12.8502
5/9/2023 4:00:00 AM 5.5693 12.9916
5/9/2023 4:15:00 AM 5.5678 13.0888
5/9/2023 4:30:00 AM 5.5658 12.9939
5/9/2023 4:45:00 AM 5.5659 12.6606
5/9/2023 5:00:00 AM 5.5685 12.4821
5/9/2023 5:15:00 AM 5.5687 12.6009
5/9/2023 5:30:00 AM 5.5688 12.6628
5/9/2023 5:45:00 AM 5.565 12.5
5/9/2023 6:00:00 AM 5.569 12.1667
5/9/2023 6:15:00 AM 5.57 12.0763
5/9/2023 6:30:00 AM 5.564 11.5803
5/9/2023 6:45:00 AM 5.5635 11.2067
5/9/2023 7:00:00 AM 5.5618 10.8845
5/9/2023 7:15:00 AM 5.5633 10.4721
5/9/2023 7:30:00 AM 5.5632 10.4121
5/9/2023 7:45:00 AM 5.5637 10.2228
5/9/2023 8:00:00 AM 5.5634 10.1907
5/9/2023 8:15:00 AM 5.5609 10.1202
5/9/2023 8:30:00 AM 5.5593 10.1279
5/9/2023 8:45:00 AM 5.558 10.1
5/9/2023 9:00:00 AM 5.559 9.9212
5/9/2023 9:15:00 AM 5.5575 12.6043
5/9/2023 9:30:00 AM 5.5552 13.7386
5/9/2023 9:45:00 AM 5.5505 10.7071
5/9/2023 10:00:00 AM 5.5499 10.1872
5/9/2023 10:15:00 AM 5.5492 10.3058
5/9/2023 10:30:00 AM 5.5462 9.8497
5/9/2023 10:45:00 AM 5.5441 9.772
5/9/2023 11:00:00 AM 5.5402 9.6304
5/9/2023 11:15:00 AM 5.5383 9.5504
5/9/2023 11:30:00 AM 5.5352 9.8725
5/9/2023 11:45:00 AM 5.5342 10
5/9/2023 12:00:00 PM 5.5351 9.8827
5/9/2023 12:15:00 PM 5.5347 9.8251
5/9/2023 12:30:00 PM 5.5347 9.5573
5/9/2023 12:45:00 PM 5.5346 9.546
5/9/2023 1:00:00 PM 5.5345 9.7109
5/9/2023 1:15:00 PM 5.5345 9.6591
5/9/2023 1:30:00 PM 5.5343 10.0101
5/9/2023 1:45:00 PM 5.5347 10.0097
5/9/2023 2:00:00 PM 5.5344 10.196
5/9/2023 2:15:00 PM 5.5382 10.385
5/9/2023 2:30:00 PM 5.5392 10.471
5/9/2023 2:45:00 PM 5.54 10.036
5/9/2023 3:00:00 PM 5.5399 10.1559
5/9/2023 3:15:00 PM 5.5428 9.9056
5/9/2023 3:30:00 PM 5.5444 9.8836
5/9/2023 3:45:00 PM 5.5441 9.5844
5/9/2023 4:00:00 PM 5.545 9.5546
5/9/2023 4:15:00 PM 5.5449 9.5584
5/9/2023 4:30:00 PM 5.5459 9.6438
5/9/2023 4:45:00 PM 5.5496 9.5048
5/9/2023 5:00:00 PM 5.5493 9.511
5/9/2023 5:15:00 PM 5.5511 9.868
5/9/2023 5:30:00 PM 5.561 9.4656
5/9/2023 5:45:00 PM 5.5706 9.4
5/9/2023 6:00:00 PM 5.5741 9.3564
5/9/2023 6:15:00 PM 5.5744 9.2193
5/9/2023 6:30:00 PM 5.576 9.228
5/9/2023 6:45:00 PM 5.5789 9.4705
5/9/2023 7:00:00 PM 5.5791 9.5054
5/9/2023 7:15:00 PM 5.5804 9.4525
5/9/2023 7:30:00 PM 5.5834 9.3947
5/9/2023 7:45:00 PM 5.5841 9.5155
5/9/2023 8:00:00 PM 5.5867 9.7148
5/9/2023 8:15:00 PM 5.5886 9.3878
5/9/2023 8:30:00 PM 5.5884 9.7508
5/9/2023 8:45:00 PM 5.5874 9.8
5/9/2023 9:00:00 PM 5.5887 9.8662
5/9/2023 9:15:00 PM 5.5886 10.123
5/9/2023 9:30:00 PM 5.5873 10.4437
5/9/2023 9:45:00 PM 5.5838 9.867
5/9/2023 10:00:00 PM 5.5837 9.6993
5/9/2023 10:15:00 PM 5.5838 9.5393
5/9/2023 10:30:00 PM 5.5837 11.0729
5/9/2023 10:45:00 PM 5.5815 12.5247
5/9/2023 11:00:00 PM 5.5796 12.421
5/9/2023 11:15:00 PM 5.5784 11.314
5/9/2023 11:30:00 PM 5.5788 11.568
5/9/2023 11:45:00 PM 5.579 11.2
5/10/2023 12:00:00 AM 5.5784 11.5912
5/10/2023 12:15:00 AM 5.5769 11.1146
5/10/2023 12:30:00 AM 5.5767 11.3538
5/10/2023 12:45:00 AM 5.5744 11.4954
5/10/2023 1:00:00 AM 5.5734 11.3407
5/10/2023 1:15:00 AM 5.5738 10.9023
5/10/2023 1:30:00 AM 5.5739 11.3611
5/10/2023 1:45:00 AM 5.5702 10.6596
5/10/2023 2:00:00 AM 5.5689 10.6143
5/10/2023 2:15:00 AM 5.5689 10.4905
5/10/2023 2:30:00 AM 5.5684 10.9012
5/10/2023 2:45:00 AM 5.5664 11.1
5/10/2023 3:00:00 AM 5.5643 11.1736
5/10/2023 3:15:00 AM 5.5645 10.695
5/10/2023 3:30:00 AM 5.5644 10.4131
5/10/2023 3:45:00 AM 5.5627 10.1455
5/10/2023 4:00:00 AM 5.5534 9.3838
5/10/2023 4:15:00 AM 5.55 9.1006
5/10/2023 4:30:00 AM 5.5497 9.2271
5/10/2023 4:45:00 AM 5.5516 9.1947
5/10/2023 5:00:00 AM 5.5538 9.9201
5/10/2023 5:15:00 AM 5.5549 10.0634
5/10/2023 5:30:00 AM 5.5549 9.7976
5/10/2023 5:45:00 AM 5.558 9.7
5/10/2023 6:00:00 AM 5.5567 9.5406
5/10/2023 6:15:00 AM 5.5547 9.6337
5/10/2023 6:30:00 AM 5.5546 9.9378
5/10/2023 6:45:00 AM 5.5556 10.0292
5/10/2023 7:00:00 AM 5.5557 9.5927
5/10/2023 7:15:00 AM 5.5584 9.2102
5/10/2023 7:30:00 AM 5.5591 9.1766
5/10/2023 7:45:00 AM 5.5591 9.2305
5/10/2023 8:00:00 AM 5.5598 8.6898
5/10/2023 8:15:00 AM 5.5594 8.4951
5/10/2023 8:30:00 AM 5.5595 8.4281
5/10/2023 8:45:00 AM 5.5566 8.4
5/10/2023 9:00:00 AM 5.5594 8.2836
5/10/2023 9:15:00 AM 5.5595 8.446
5/10/2023 9:30:00 AM 5.5597 11.6932
5/10/2023 9:45:00 AM 5.5591 11.0788
5/10/2023 10:00:00 AM 5.5579 9.1131
5/10/2023 10:15:00 AM 5.5567 8.8724
5/10/2023 10:30:00 AM 5.5584 8.9725
5/10/2023 10:45:00 AM 5.5596 8.944
5/10/2023 11:00:00 AM 5.559 8.5754
5/10/2023 11:15:00 AM 5.5592 8.4675
5/10/2023 11:30:00 AM 5.5594 8.6459
5/10/2023 11:45:00 AM 5.5608 8.5
5/10/2023 12:00:00 PM 5.559 8.3294
5/10/2023 12:15:00 PM 5.5583 8.6116
5/10/2023 12:30:00 PM 5.5581 8.5227
5/10/2023 12:45:00 PM 5.5593 8.6858
5/10/2023 1:00:00 PM 5.5596 8.851
5/10/2023 1:15:00 PM 5.5591 8.8284
5/10/2023 1:30:00 PM 5.5593 8.5552
5/10/2023 1:45:00 PM 5.5604 8.505
5/10/2023 2:00:00 PM 5.5633 8.5598
5/10/2023 2:15:00 PM 5.5644 8.8549
5/10/2023 2:30:00 PM 5.5673 9.0166
5/10/2023 2:45:00 PM 5.5718 8.4703
5/10/2023 3:00:00 PM 5.5739 8.327
5/10/2023 3:15:00 PM 5.5777 7.947
5/10/2023 3:30:00 PM 5.5789 7.9348
5/10/2023 3:45:00 PM 5.5803 7.9327
5/10/2023 4:00:00 PM 5.5836 8.4034
5/10/2023 4:15:00 PM 5.5837 8.4373
5/10/2023 4:30:00 PM 5.5868 10.5766
5/10/2023 4:45:00 PM 5.5844 10.2008
5/10/2023 5:00:00 PM 5.5884 9.4613
5/10/2023 5:15:00 PM 5.5906 9.8738
5/10/2023 5:30:00 PM 5.5937 9.5285
5/10/2023 5:45:00 PM 5.5986 9.2
5/10/2023 6:00:00 PM 5.5979 11.139
5/10/2023 6:15:00 PM 5.5981 10.4861
5/10/2023 6:30:00 PM 5.6003 10.0506
5/10/2023 6:45:00 PM 5.6027 9.5924
5/10/2023 7:00:00 PM 5.6032 9.4633
5/10/2023 7:15:00 PM 5.6057 9.3028
5/10/2023 7:30:00 PM 5.6059 9.0254
5/10/2023 7:45:00 PM 5.6075 8.5657
5/10/2023 8:00:00 PM 5.6083 8.5659
5/10/2023 8:15:00 PM 5.608 8.382
5/10/2023 8:30:00 PM 5.6077 8.6957
5/10/2023 8:45:00 PM 5.6098 8.9
5/10/2023 9:00:00 PM 5.604 8.9655
5/10/2023 9:15:00 PM 5.604 9.0065
5/10/2023 9:30:00 PM 5.6034 9.1484
5/10/2023 9:45:00 PM 5.6031 8.8003
5/10/2023 10:00:00 PM 5.6025 8.8217
5/10/2023 10:15:00 PM 5.5991 8.9254
5/10/2023 10:30:00 PM 5.5953 9.3302
5/10/2023 10:45:00 PM 5.5932 8.6674
5/10/2023 11:00:00 PM 5.5868 8.1525
5/10/2023 11:15:00 PM 5.5845 8.107
5/10/2023 11:30:00 PM 5.5834 8.1734
5/10/2023 11:45:00 PM 5.5832 8.6
5/11/2023 12:00:00 AM 5.5788 8.3952
5/11/2023 12:15:00 AM 5.5789 8.1547
5/11/2023 12:30:00 AM 5.5742 7.8417
5/11/2023 12:45:00 AM 5.5734 7.7404
5/11/2023 1:00:00 AM 5.5695 7.9525
5/11/2023 1:15:00 AM 5.568 8.1264
5/11/2023 1:30:00 AM 5.566 8.2415
5/11/2023 1:45:00 AM 5.5641 8.0783
5/11/2023 2:00:00 AM 5.5644 8.7098
5/11/2023 2:15:00 AM 5.564 8.4112
5/11/2023 2:30:00 AM 5.5609 8.8884
5/11/2023 2:45:00 AM 5.558 8.9
5/11/2023 3:00:00 AM 5.5599 8.0391
5/11/2023 3:15:00 AM 5.5573 7.9089
5/11/2023 3:30:00 AM 5.5543 7.9249
5/11/2023 3:45:00 AM 5.5545 7.7438
5/11/2023 4:00:00 AM 5.5531 7.8733
5/11/2023 4:15:00 AM 5.5467 7.4488
5/11/2023 4:30:00 AM 5.5438 7.4968
5/11/2023 4:45:00 AM 5.5447 8.0565
5/11/2023 5:00:00 AM 5.5452 8.3916
5/11/2023 5:15:00 AM 5.5447 7.9069
5/11/2023 5:30:00 AM 5.5447 7.825
5/11/2023 5:45:00 AM 5.544 7.7
5/11/2023 6:00:00 AM 5.5433 8.3142
5/11/2023 6:15:00 AM 5.5451 7.9524
5/11/2023 6:30:00 AM 5.5443 7.7849
5/11/2023 6:45:00 AM 5.5417 7.6486
5/11/2023 7:00:00 AM 5.5399 7.6985
5/11/2023 7:15:00 AM 5.5396 7.6292
5/11/2023 7:30:00 AM 5.5396 7.4051
5/11/2023 7:45:00 AM 5.5399 7.2137
5/11/2023 8:00:00 AM 5.5405 7.1669
5/11/2023 8:15:00 AM 5.5507 7.3535
5/11/2023 8:30:00 AM 5.5562 7.2404
5/11/2023 8:45:00 AM 5.5608 7.1
5/11/2023 9:00:00 AM 5.5602 6.9737
5/11/2023 9:15:00 AM 5.5627 6.8877
5/11/2023 9:30:00 AM 5.5645 7.0934
5/11/2023 9:45:00 AM 5.5646 10.7088
5/11/2023 10:00:00 AM 5.5643 7.8378
5/11/2023 10:15:00 AM 5.5643 7.0188
5/11/2023 10:30:00 AM 5.5676 6.7271
5/11/2023 10:45:00 AM 5.5688 6.6862
5/11/2023 11:00:00 AM 5.5687 6.6723
5/11/2023 11:15:00 AM 5.5692 6.5043
5/11/2023 11:30:00 AM 5.569 6.4413
5/11/2023 11:45:00 AM 5.5692 6.5
5/11/2023 12:00:00 PM 5.5687 6.5098
5/11/2023 12:15:00 PM 5.5704 6.3802
5/11/2023 12:30:00 PM 5.5733 6.7744
5/11/2023 12:45:00 PM 5.5743 6.3807
5/11/2023 1:00:00 PM 5.5742 6.3019
5/11/2023 1:15:00 PM 5.5763 6.2085
5/11/2023 1:30:00 PM 5.5789 6.5368
5/11/2023 1:45:00 PM 5.5828 6.389
5/11/2023 2:00:00 PM 5.5839 6.2486
5/11/2023 2:15:00 PM 5.5876 6.1432
5/11/2023 2:30:00 PM 5.5893 6.2082
5/11/2023 2:45:00 PM 5.594 6.1724
5/11/2023 3:00:00 PM 5.5983 6.4549
5/11/2023 3:15:00 PM 5.6026 7.3552
5/11/2023 3:30:00 PM 5.6049 7.9838
5/11/2023 3:45:00 PM 5.6085 8.0382
5/11/2023 4:00:00 PM 5.6129 8.5477
5/11/2023 4:15:00 PM 5.6158 8.2164
5/11/2023 4:30:00 PM 5.6194 8.1414
5/11/2023 4:45:00 PM 5.6252 7.879
5/11/2023 5:00:00 PM 5.628 7.6661
5/11/2023 5:15:00 PM 5.6308 7.4359
5/11/2023 5:30:00 PM 5.6336 7.5531
5/11/2023 5:45:00 PM 5.6392 9.1
5/11/2023 6:00:00 PM 5.639 9.0153
5/11/2023 6:15:00 PM 5.6437 8.2924
5/11/2023 6:30:00 PM 5.65 8.0178
5/11/2023 6:45:00 PM 5.654 7.6144
5/11/2023 7:00:00 PM 5.6578 7.7201
5/11/2023 7:15:00 PM 5.6617 7.4984
5/11/2023 7:30:00 PM 5.6649 7.4649
5/11/2023 7:45:00 PM 5.6662 7.2723
5/11/2023 8:00:00 PM 5.667 7.0839
5/11/2023 8:15:00 PM 5.668 7.0056
5/11/2023 8:30:00 PM 5.667 6.5311
5/11/2023 8:45:00 PM 5.6658 6.3
5/11/2023 9:00:00 PM 5.6619 7.4734
5/11/2023 9:15:00 PM 5.6612 6.9696
5/11/2023 9:30:00 PM 5.6589 7.3896
5/11/2023 9:45:00 PM 5.6559 7.5313
5/11/2023 10:00:00 PM 5.6521 7.468
5/11/2023 10:15:00 PM 5.6501 7.7581
5/11/2023 10:30:00 PM 5.6474 7.2452
5/11/2023 10:45:00 PM 5.6441 7.321
5/11/2023 11:00:00 PM 5.6422 7.0012
5/11/2023 11:15:00 PM 5.6387 7.1413
5/11/2023 11:30:00 PM 5.637 7.2628
5/11/2023 11:45:00 PM 5.6308 7.5
5/12/2023 12:00:00 AM 5.6324 7.1332
5/12/2023 12:15:00 AM 5.628 7.1035
5/12/2023 12:30:00 AM 5.6272 6.9435
5/12/2023 12:45:00 AM 5.6236 6.8138
5/12/2023 1:00:00 AM 5.6226 7.3011
5/12/2023 1:15:00 AM 5.6184 7.1267
5/12/2023 1:30:00 AM 5.6171 7.0458
5/12/2023 1:45:00 AM 5.6135 6.9892
5/12/2023 2:00:00 AM 5.613 6.893
5/12/2023 2:15:00 AM 5.6094 7.0167
5/12/2023 2:30:00 AM 5.6079 7.2272
5/12/2023 2:45:00 AM 5.6056 7.4
5/12/2023 3:00:00 AM 5.6034 7.4566
5/12/2023 3:15:00 AM 5.6035 7.5207
5/12/2023 3:30:00 AM 5.6026 8.3868
5/12/2023 3:45:00 AM 5.5999 8.0301
5/12/2023 4:00:00 AM 5.5986 7.1966
5/12/2023 4:15:00 AM 5.5983 6.811
5/12/2023 4:30:00 AM 5.5984 6.6685
5/12/2023 4:45:00 AM 5.5978 6.7201
5/12/2023 5:00:00 AM 5.5948 6.79
5/12/2023 5:15:00 AM 5.5943 6.8131
5/12/2023 5:30:00 AM 5.593 6.7081
5/12/2023 5:45:00 AM 5.593 6.6
5/12/2023 6:00:00 AM 5.591 6.4657
5/12/2023 6:15:00 AM 5.5921 6.4425
5/12/2023 6:30:00 AM 5.5907 6.4637
5/12/2023 6:45:00 AM 5.5883 6.3959
5/12/2023 7:00:00 AM 5.5892 6.524
5/12/2023 7:15:00 AM 5.5889 6.6288
5/12/2023 7:30:00 AM 5.5896 6.5803
5/12/2023 7:45:00 AM 5.589 6.4984
5/12/2023 8:00:00 AM 5.5899 6.9951
5/12/2023 8:15:00 AM 5.5922 6.4587
5/12/2023 8:30:00 AM 5.5935 6.3206
5/12/2023 8:45:00 AM 5.593 6.2
5/12/2023 9:00:00 AM 5.5954 6.1672
5/12/2023 9:15:00 AM 5.5957 6.0268
5/12/2023 9:30:00 AM 5.597 6.5842
5/12/2023 9:45:00 AM 5.5982 7.7658
5/12/2023 10:00:00 AM 5.598 6.1456
5/12/2023 10:15:00 AM 5.598 5.9318
5/12/2023 10:30:00 AM 5.5983 5.9948
5/12/2023 10:45:00 AM 5.599 6.6306
5/12/2023 11:00:00 AM 5.6025 6.2641
5/12/2023 11:15:00 AM 5.6032 6.3484
5/12/2023 11:30:00 AM 5.6037 6.0729
5/12/2023 11:45:00 AM 5.6014 6
5/12/2023 12:00:00 PM 5.6083 6.102
5/12/2023 12:15:00 PM 5.6082 5.8681
5/12/2023 12:30:00 PM 5.6113 6.0851
5/12/2023 12:45:00 PM 5.6144 6.3406
5/12/2023 1:00:00 PM 5.6195 5.9626
5/12/2023 1:15:00 PM 5.6238 5.7295
5/12/2023 1:30:00 PM 5.6279 5.9345
5/12/2023 1:45:00 PM 5.6307 5.7469
5/12/2023 2:00:00 PM 5.6362 5.653
5/12/2023 2:15:00 PM 5.6421 5.7527
5/12/2023 2:30:00 PM 5.6475 5.7148
5/12/2023 2:45:00 PM 5.6541 5.552
5/12/2023 3:00:00 PM 5.6597 5.5355
5/12/2023 3:15:00 PM 5.6645 5.5349
5/12/2023 3:30:00 PM 5.6706 5.5923
5/12/2023 3:45:00 PM 5.6739 5.7212
5/12/2023 4:00:00 PM 5.6788 5.9385
5/12/2023 4:15:00 PM 5.6836 5.9228
5/12/2023 4:30:00 PM 5.6903 5.9491
5/12/2023 4:45:00 PM 5.6976 5.8096
5/12/2023 5:00:00 PM 5.7034 5.6351
5/12/2023 5:15:00 PM 5.7104 5.5375
5/12/2023 5:30:00 PM 5.7165 5.4181
5/12/2023 5:45:00 PM 5.719 5.4
5/12/2023 6:00:00 PM 5.7297 5.2298
5/12/2023 6:15:00 PM 5.7343 5.1469
5/12/2023 6:30:00 PM 5.7403 5.0868
5/12/2023 6:45:00 PM 5.7451 4.9992
5/12/2023 7:00:00 PM 5.7488 5.0501
5/12/2023 7:15:00 PM 5.7536 4.9431
5/12/2023 7:30:00 PM 5.7575 5.0671
5/12/2023 7:45:00 PM 5.7579 5.0037
5/12/2023 8:00:00 PM 5.7574 5.0643
5/12/2023 8:15:00 PM 5.7574 5.001
5/12/2023 8:30:00 PM 5.7575 5.0771
5/12/2023 8:45:00 PM 5.7526 5.1
5/12/2023 9:00:00 PM 5.753 5.2873
5/12/2023 9:15:00 PM 5.748 5.415
5/12/2023 9:30:00 PM 5.7425 5.4703
5/12/2023 9:45:00 PM 5.7389 5.5285
5/12/2023 10:00:00 PM 5.7336 5.7639
5/12/2023 10:15:00 PM 5.7276 6.044
5/12/2023 10:30:00 PM 5.7223 5.9964
5/12/2023 10:45:00 PM 5.7169 6.1499
5/12/2023 11:00:00 PM 5.7124 6.3064
5/12/2023 11:15:00 PM 5.7082 5.9868
5/12/2023 11:30:00 PM 5.7037 5.8908
5/12/2023 11:45:00 PM 5.7022 5.9
5/13/2023 12:00:00 AM 5.6951 5.8689
5/13/2023 12:15:00 AM 5.6902 5.8736
5/13/2023 12:30:00 AM 5.6857 5.7923
5/13/2023 12:45:00 AM 5.6809 5.9173
5/13/2023 1:00:00 AM 5.6756 6.0581
5/13/2023 1:15:00 AM 5.6715 5.9639
5/13/2023 1:30:00 AM 5.6661 6.1722
5/13/2023 1:45:00 AM 5.6634 6.1883
5/13/2023 2:00:00 AM 5.6588 6.0706
5/13/2023 2:15:00 AM 5.6548 6.2881
5/13/2023 2:30:00 AM 5.6517 6.4417
5/13/2023 2:45:00 AM 5.6532 6.4
5/13/2023 3:00:00 AM 5.6429 6.386
5/13/2023 3:15:00 AM 5.64 6.3424
5/13/2023 3:30:00 AM 5.637 6.384
5/13/2023 3:45:00 AM 5.6325 6.3058
5/13/2023 4:00:00 AM 5.6302 6.2943
5/13/2023 4:15:00 AM 5.6275 6.2899
5/13/2023 4:30:00 AM 5.624 6.3233
5/13/2023 4:45:00 AM 5.6224 6.1935
5/13/2023 5:00:00 AM 5.6185 6.7441
5/13/2023 5:15:00 AM 5.6176 6.393
5/13/2023 5:30:00 AM 5.6168 6.1818
5/13/2023 5:45:00 AM 5.614 6.1
5/13/2023 6:00:00 AM 5.6128 5.9683
5/13/2023 6:15:00 AM 5.6114 6.2488
5/13/2023 6:30:00 AM 5.608 6.1826
5/13/2023 6:45:00 AM 5.6066 5.8152
5/13/2023 7:00:00 AM 5.604 5.7012
5/13/2023 7:15:00 AM 5.6032 5.5739
5/13/2023 7:30:00 AM 5.6027 5.5597
5/13/2023 7:45:00 AM 5.6028 5.7503
5/13/2023 8:00:00 AM 5.6032 6.1013
5/13/2023 8:15:00 AM 5.6025 5.7868
5/13/2023 8:30:00 AM 5.604 5.5816
5/13/2023 8:45:00 AM 5.6098 5.6
5/13/2023 9:00:00 AM 5.6076 5.248
5/13/2023 9:15:00 AM 5.6081 5.2336
5/13/2023 9:30:00 AM 5.609 5.2185
5/13/2023 9:45:00 AM 5.6127 5.1834
5/13/2023 10:00:00 AM 5.6126 5.1743
5/13/2023 10:15:00 AM 5.6175 5.1137
5/13/2023 10:30:00 AM 5.618 5.156
5/13/2023 10:45:00 AM 5.6191 5.2251
5/13/2023 11:00:00 AM 5.6228 5.3027
5/13/2023 11:15:00 AM 5.6246 5.0707
5/13/2023 11:30:00 AM 5.6278 5.1309
5/13/2023 11:45:00 AM 5.628 5.1999
5/13/2023 12:00:00 PM 5.6351 5.1103
5/13/2023 12:15:00 PM 5.6381 5.1949
5/13/2023 12:30:00 PM 5.6411 5.0986
5/13/2023 12:45:00 PM 5.6389 5.8178
5/13/2023 1:00:00 PM 5.6395 5.4528
5/13/2023 1:15:00 PM 5.648 5.6329
5/13/2023 1:30:00 PM 5.6547 5.7016
5/13/2023 1:45:00 PM 5.6623 5.7074
5/13/2023 2:00:00 PM 5.6687 5.5374
5/13/2023 2:15:00 PM 5.6723 5.4062
5/13/2023 2:30:00 PM 5.6785 5.3533
5/13/2023 2:45:00 PM 5.683 5.3569
5/13/2023 3:00:00 PM 5.6885 6.3835
5/13/2023 3:15:00 PM 5.697 6.9313
5/13/2023 3:30:00 PM 5.7067 7.9625
5/13/2023 3:45:00 PM 5.715 7.2911
5/13/2023 4:00:00 PM 5.7193 7.787
5/13/2023 4:15:00 PM 5.7235 8.0294
5/13/2023 4:30:00 PM 5.7301 7.4006
5/13/2023 4:45:00 PM 5.739 6.6391
5/13/2023 5:00:00 PM 5.7464 6.4353
5/13/2023 5:15:00 PM 5.7541 6.575
5/13/2023 5:30:00 PM 5.7618 6.5725
5/13/2023 5:45:00 PM 5.7652 6.2
5/13/2023 6:00:00 PM 5.7754 6.1399
5/13/2023 6:15:00 PM 5.7805 6.745
5/13/2023 6:30:00 PM 5.7853 7.6602
5/13/2023 6:45:00 PM 5.7896 7.1077
5/13/2023 7:00:00 PM 5.7945 6.4665
5/13/2023 7:15:00 PM 5.8001 6.1675
5/13/2023 7:30:00 PM 5.8027 5.9939
5/13/2023 7:45:00 PM 5.8056 5.96
5/13/2023 8:00:00 PM 5.8055 5.8742
5/13/2023 8:15:00 PM 5.8054 5.7615
5/13/2023 8:30:00 PM 5.8051 5.5735
5/13/2023 8:45:00 PM 5.8044 5.5
5/13/2023 9:00:00 PM 5.8029 5.606
5/13/2023 9:15:00 PM 5.805 5.8863
5/13/2023 9:30:00 PM 5.8055 5.8865
5/13/2023 9:45:00 PM 5.8048 5.6353
5/13/2023 10:00:00 PM 5.8007 5.6414
5/13/2023 10:15:00 PM 5.7963 5.6411
5/13/2023 10:30:00 PM 5.7951 5.8697
5/13/2023 10:45:00 PM 5.7911 5.7127
5/13/2023 11:00:00 PM 5.7875 5.4367
5/13/2023 11:15:00 PM 5.783 5.5738
5/13/2023 11:30:00 PM 5.7772 5.5942
5/13/2023 11:45:00 PM 5.775 5.4
5/14/2023 12:00:00 AM 5.7651 5.3607
5/14/2023 12:15:00 AM 5.7618 5.4323
5/14/2023 12:30:00 AM 5.7562 5.65
5/14/2023 12:45:00 AM 5.7489 5.5541
5/14/2023 1:00:00 AM 5.743 5.4869
5/14/2023 1:15:00 AM 5.7379 5.594
5/14/2023 1:30:00 AM 5.7319 5.8199
5/14/2023 1:45:00 AM 5.7271 6.0817
5/14/2023 2:00:00 AM 5.7231 5.7335
5/14/2023 2:15:00 AM 5.719 5.5799
5/14/2023 2:30:00 AM 5.7144 5.6806
5/14/2023 2:45:00 AM 5.7162 5.6
5/14/2023 3:00:00 AM 5.7054 6.2635
5/14/2023 3:15:00 AM 5.7009 6.1679
5/14/2023 3:30:00 AM 5.6988 5.8756
5/14/2023 3:45:00 AM 5.6949 5.8524
5/14/2023 4:00:00 AM 5.6909 5.7634
5/14/2023 4:15:00 AM 5.6883 5.8464
5/14/2023 4:30:00 AM 5.6859 5.8894
5/14/2023 4:45:00 AM 5.6854 6.3511
5/14/2023 5:00:00 AM 5.6814 6.5503
5/14/2023 5:15:00 AM 5.6794 7.4135
5/14/2023 5:30:00 AM 5.6805 6.9547
5/14/2023 5:45:00 AM 5.6826 6.6
5/14/2023 6:00:00 AM 5.6775 6.0409
5/14/2023 6:15:00 AM 5.6771 5.9401
5/14/2023 6:30:00 AM 5.6756 5.7809
5/14/2023 6:45:00 AM 5.6758 5.7417
5/14/2023 7:00:00 AM 5.6745 6.0262
5/14/2023 7:15:00 AM 5.6753 5.5998
5/14/2023 7:30:00 AM 5.6755 5.3495
5/14/2023 7:45:00 AM 5.6791 5.1186
5/14/2023 8:00:00 AM 5.6805 5.0933
5/14/2023 8:15:00 AM 5.6814 5.0476
5/14/2023 8:30:00 AM 5.6842 5.0971
5/14/2023 8:45:00 AM 5.684 5
5/14/2023 9:00:00 AM 5.686 5.1694
5/14/2023 9:15:00 AM 5.6904 4.9688
5/14/2023 9:30:00 AM 5.6929 5.0933
5/14/2023 9:45:00 AM 5.6973 5.0864
5/14/2023 10:00:00 AM 5.7026 4.9697
5/14/2023 10:15:00 AM 5.7067 4.9492
5/14/2023 10:30:00 AM 5.7103 4.8501
5/14/2023 10:45:00 AM 5.7148 4.8694
5/14/2023 11:00:00 AM 5.7203 5.1326
5/14/2023 11:15:00 AM 5.7254 5.2557
5/14/2023 11:30:00 AM 5.7296 5.1525
5/14/2023 11:45:00 AM 5.7344 5.2
5/14/2023 12:00:00 PM 5.7407 6.2084
5/14/2023 12:15:00 PM 5.7433 6.2247
5/14/2023 12:30:00 PM 5.7477 5.9465
5/14/2023 12:45:00 PM 5.7519 6.157
5/14/2023 1:00:00 PM 5.7574 6.0274
5/14/2023 1:15:00 PM 5.7613 5.786
5/14/2023 1:30:00 PM 5.7664 6.2807
5/14/2023 1:45:00 PM 5.7738 6.7534
5/14/2023 2:00:00 PM 5.781 6.3378
5/14/2023 2:15:00 PM 5.7882 6.5948
5/14/2023 2:30:00 PM 5.7936 6.7455
5/14/2023 2:45:00 PM 5.7995 6.4313
5/14/2023 3:00:00 PM 5.8073 7.6455
5/14/2023 3:15:00 PM 5.817 6.6819
5/14/2023 3:30:00 PM 5.828 6.1018
5/14/2023 3:45:00 PM 5.838 5.8386
5/14/2023 4:00:00 PM 5.8475 5.6831
5/14/2023 4:15:00 PM 5.8554 5.7785
5/14/2023 4:30:00 PM 5.8638 5.4313
5/14/2023 4:45:00 PM 5.8716 5.256
5/14/2023 5:00:00 PM 5.8803 5.1691
5/14/2023 5:15:00 PM 5.8879 5.1276
5/14/2023 5:30:00 PM 5.8961 5.1277
5/14/2023 5:45:00 PM 5.8982 5.0002
5/14/2023 6:00:00 PM 5.9135 5.237
5/14/2023 6:15:00 PM 5.9207 5.2207
5/14/2023 6:30:00 PM 5.9285 5.0597
5/14/2023 6:45:00 PM 5.9347 4.853
5/14/2023 7:00:00 PM 5.9408 4.8047
5/14/2023 7:15:00 PM 5.9416 4.6673
5/14/2023 7:30:00 PM 5.9417 4.7407
5/14/2023 7:45:00 PM 5.9402 4.6764
5/14/2023 8:00:00 PM 5.9372 4.5923
5/14/2023 8:15:00 PM 5.9341 4.5305
5/14/2023 8:30:00 PM 5.928 4.5706
5/14/2023 8:45:00 PM 5.9248 4.6
5/14/2023 9:00:00 PM 5.9185 4.6627
5/14/2023 9:15:00 PM 5.914 4.6646
5/14/2023 9:30:00 PM 5.9083 4.9645
5/14/2023 9:45:00 PM 5.9019 4.8173
5/14/2023 10:00:00 PM 5.8946 4.7846
5/14/2023 10:15:00 PM 5.8879 4.7324
5/14/2023 10:30:00 PM 5.8818 4.7687
5/14/2023 10:45:00 PM 5.8772 4.6486
5/14/2023 11:00:00 PM 5.8717 4.6979
5/14/2023 11:15:00 PM 5.8657 4.868
5/14/2023 11:30:00 PM 5.8597 5.0782
5/14/2023 11:45:00 PM 5.8604 5.1
5/15/2023 12:00:00 AM 5.8499 4.9111
5/15/2023 12:15:00 AM 5.8447 4.9278
5/15/2023 12:30:00 AM 5.8383 5.0646
5/15/2023 12:45:00 AM 5.8323 5.2315
5/15/2023 1:00:00 AM 5.8263 5.4392
5/15/2023 1:15:00 AM 5.8208 5.7128
5/15/2023 1:30:00 AM 5.813 6.3092
5/15/2023 1:45:00 AM 5.809 5.8908
5/15/2023 2:00:00 AM 5.8044 5.4904
5/15/2023 2:15:00 AM 5.7984 5.2729
5/15/2023 2:30:00 AM 5.7931 5.1638
5/15/2023 2:45:00 AM 5.7932 5.2
5/15/2023 3:00:00 AM 5.7787 5.3133
5/15/2023 3:15:00 AM 5.7738 5.3575
5/15/2023 3:30:00 AM 5.7682 4.8917
5/15/2023 3:45:00 AM 5.763 4.8745
5/15/2023 4:00:00 AM 5.7584 4.832
5/15/2023 4:15:00 AM 5.7536 4.8271
5/15/2023 4:30:00 AM 5.7486 4.8739
5/15/2023 4:45:00 AM 5.7447 4.8631
5/15/2023 5:00:00 AM 5.7408 4.8954
5/15/2023 5:15:00 AM 5.7368 4.8581
5/15/2023 5:30:00 AM 5.7337 4.9504
5/15/2023 5:45:00 AM 5.7344 4.9999
5/15/2023 6:00:00 AM 5.7284 5.0191
5/15/2023 6:15:00 AM 5.7265 5.0286
5/15/2023 6:30:00 AM 5.7241 4.9158
5/15/2023 6:45:00 AM 5.7244 4.8457
5/15/2023 7:00:00 AM 5.7238 5.2249
5/15/2023 7:15:00 AM 5.721 5.2207
5/15/2023 7:30:00 AM 5.7197 6.6193
5/15/2023 7:45:00 AM 5.7212 6.4443
5/15/2023 8:00:00 AM 5.7252 6.0702
5/15/2023 8:15:00 AM 5.7289 5.5878
5/15/2023 8:30:00 AM 5.7331 5.5621
5/15/2023 8:45:00 AM 5.7358 5.5999
5/15/2023 9:00:00 AM 5.7353 5.2107
5/15/2023 9:15:00 AM 5.7312 4.9336
5/15/2023 9:30:00 AM 5.7258 4.8657
5/15/2023 9:45:00 AM 5.7168 5.0883
5/15/2023 10:00:00 AM 5.7132 5.1454
5/15/2023 10:15:00 AM 5.6996 8.6232
5/15/2023 10:30:00 AM 5.7122 6.3837
5/15/2023 10:45:00 AM 5.7288 5.4434
5/15/2023 11:00:00 AM 5.7469 5.0584
5/15/2023 11:15:00 AM 5.7613 4.8282
5/15/2023 11:30:00 AM 5.771 5.4184
5/15/2023 11:45:00 AM 5.7736 5.0001
5/15/2023 12:00:00 PM 5.788 4.5647
5/15/2023 12:15:00 PM 5.7951 4.6001
5/15/2023 12:30:00 PM 5.8024 4.4881
5/15/2023 12:45:00 PM 5.8096 4.3712
5/15/2023 1:00:00 PM 5.8164 4.4409
5/15/2023 1:15:00 PM 5.8238 4.7459
5/15/2023 1:30:00 PM 5.8306 5.0573
5/15/2023 1:45:00 PM 5.8378 4.9674
5/15/2023 2:00:00 PM 5.8455 4.8752
5/15/2023 2:15:00 PM 5.8527 4.6326
5/15/2023 2:30:00 PM 5.8616 4.8131
5/15/2023 2:45:00 PM 5.8704 4.805
5/15/2023 3:00:00 PM 5.8787 5.1703
5/15/2023 3:15:00 PM 5.8887 5.2301
5/15/2023 3:30:00 PM 5.8996 5.1666
5/15/2023 3:45:00 PM 5.9106 5.0458
5/15/2023 4:00:00 PM 5.9182 4.9324
5/15/2023 4:15:00 PM 5.9248 5.3148
5/15/2023 4:30:00 PM 5.932 5.5382
5/15/2023 4:45:00 PM 5.9395 5.8175
5/15/2023 5:00:00 PM 5.9475 5.693
5/15/2023 5:15:00 PM 5.9578 5.5189
5/15/2023 5:30:00 PM 5.967 5.1152
5/15/2023 5:45:00 PM 5.971 5.1
5/15/2023 6:00:00 PM 5.9886 5.1596
5/15/2023 6:15:00 PM 5.9983 5.0619
5/15/2023 6:30:00 PM 6.0087 4.8756
5/15/2023 6:45:00 PM 6.0177 5.0917
5/15/2023 7:00:00 PM 6.024 5.2005
5/15/2023 7:15:00 PM 6.0237 5.1603
5/15/2023 7:30:00 PM 6.0238 4.8878
5/15/2023 7:45:00 PM 6.0239 4.6116
5/15/2023 8:00:00 PM 6.0234 4.5784
5/15/2023 8:15:00 PM 6.0236 4.6758
5/15/2023 8:30:00 PM 6.0189 5.0061
5/15/2023 8:45:00 PM 6.0116 5.0999
5/15/2023 9:00:00 PM 6.0016 4.8277
5/15/2023 9:15:00 PM 5.9955 4.6699
5/15/2023 9:30:00 PM 5.9902 4.6522
5/15/2023 9:45:00 PM 5.9849 4.5377
5/15/2023 10:00:00 PM 5.9784 4.4717
5/15/2023 10:15:00 PM 5.9713 4.4691
5/15/2023 10:30:00 PM 5.9638 4.3743
5/15/2023 10:45:00 PM 5.9576 4.3917
5/15/2023 11:00:00 PM 5.95 4.3865
5/15/2023 11:15:00 PM 5.9433 4.4175
5/15/2023 11:30:00 PM 5.9365 4.5044
5/15/2023 11:45:00 PM 5.9332 4.5999
5/16/2023 12:00:00 AM 5.9219 4.3883
5/16/2023 12:15:00 AM 5.9137 4.4508
5/16/2023 12:30:00 AM 5.9057 4.4382
5/16/2023 12:45:00 AM 5.8963 4.3795
5/16/2023 1:00:00 AM 5.8873 4.3973
5/16/2023 1:15:00 AM 5.8768 4.3426
5/16/2023 1:30:00 AM 5.8688 4.4118
5/16/2023 1:45:00 AM 5.8603 4.4953
5/16/2023 2:00:00 AM 5.8512 4.5224
5/16/2023 2:15:00 AM 5.8433 4.4406
5/16/2023 2:30:00 AM 5.8351 4.4545
5/16/2023 2:45:00 AM 5.8282 4.4
5/16/2023 3:00:00 AM 5.8219 4.4651
5/16/2023 3:15:00 AM 5.815 4.4913
5/16/2023 3:30:00 AM 5.8089 4.9178
5/16/2023 3:45:00 AM 5.7999 5.096
5/16/2023 4:00:00 AM 5.7922 4.9384
5/16/2023 4:15:00 AM 5.7861 4.8801
5/16/2023 4:30:00 AM 5.7814 4.7874
5/16/2023 4:45:00 AM 5.7773 4.6165
5/16/2023 5:00:00 AM 5.7736 4.6704
5/16/2023 5:15:00 AM 5.7706 4.7939
5/16/2023 5:30:00 AM 5.7664 4.8568
5/16/2023 5:45:00 AM 5.7638 4.9
5/16/2023 6:00:00 AM 5.7618 4.9019
5/16/2023 6:15:00 AM 5.7574 5.2721
5/16/2023 6:30:00 AM 5.7566 5.0505
5/16/2023 6:45:00 AM 5.7571 4.749
5/16/2023 7:00:00 AM 5.7567 4.7267
5/16/2023 7:15:00 AM 5.7572 4.6863
5/16/2023 7:30:00 AM 5.758 4.9811
5/16/2023 7:45:00 AM 5.7613 5.0582
5/16/2023 8:00:00 AM 5.7623 4.7712
5/16/2023 8:15:00 AM 5.767 4.4433
5/16/2023 8:30:00 AM 5.7719 4.358
5/16/2023 8:45:00 AM 5.7778 4.3
5/16/2023 9:00:00 AM 5.7823 4.3057
5/16/2023 9:15:00 AM 5.7879 4.2535
5/16/2023 9:30:00 AM 5.7948 4.2978
5/16/2023 9:45:00 AM 5.8021 4.2203
5/16/2023 10:00:00 AM 5.8096 4.2192
5/16/2023 10:15:00 AM 5.8185 4.4994
5/16/2023 10:30:00 AM 5.8269 4.4761
5/16/2023 10:45:00 AM 5.836 4.8331
5/16/2023 11:00:00 AM 5.8457 4.8219
5/16/2023 11:15:00 AM 5.8559 4.5995
5/16/2023 11:30:00 AM 5.8679 4.5231
5/16/2023 11:45:00 AM 5.8744 4.4
5/16/2023 12:00:00 PM 5.8867 4.3868
5/16/2023 12:15:00 PM 5.899 4.4604
5/16/2023 12:30:00 PM 5.9129 4.6494
5/16/2023 12:45:00 PM 5.9255 4.7917
5/16/2023 1:00:00 PM 5.9396 4.8992
5/16/2023 1:15:00 PM 5.9547 5.0902
5/16/2023 1:30:00 PM 5.9636 6.1026
5/16/2023 1:45:00 PM 5.9744 6.5008
5/16/2023 2:00:00 PM 5.9827 6.1368
5/16/2023 2:15:00 PM 5.992 6.4179
5/16/2023 2:30:00 PM 5.9979 7.5525
5/16/2023 2:45:00 PM 6.0051 8.5716
5/16/2023 3:00:00 PM 6.0164 9.2217
5/16/2023 3:15:00 PM 6.0305 8.5449
5/16/2023 3:30:00 PM 6.043 8.6445
5/16/2023 3:45:00 PM 6.052 8.368
5/16/2023 4:00:00 PM 6.0671 7.5489
5/16/2023 4:15:00 PM 6.0828 7.2606
5/16/2023 4:30:00 PM 6.0952 6.6902
5/16/2023 4:45:00 PM 6.1066 6.5284
5/16/2023 5:00:00 PM 6.1166 6.1437
5/16/2023 5:15:00 PM 6.1279 5.8734
5/16/2023 5:30:00 PM 6.1357 6.1132
5/16/2023 5:45:00 PM 6.1376 6.1
5/16/2023 6:00:00 PM 6.1402 6.0311
5/16/2023 6:15:00 PM 6.1438 5.9085
5/16/2023 6:30:00 PM 6.1439 5.8298
5/16/2023 6:45:00 PM 6.1463 5.7622
5/16/2023 7:00:00 PM 6.1489 5.8545
5/16/2023 7:15:00 PM 6.1487 6.0248
5/16/2023 7:30:00 PM 6.1436 5.963
5/16/2023 7:45:00 PM 6.1367 6.0224
5/16/2023 8:00:00 PM 6.1263 5.6709
5/16/2023 8:15:00 PM 6.1181 5.2419
5/16/2023 8:30:00 PM 6.1088 5.1046
5/16/2023 8:45:00 PM 6.1054 5
5/16/2023 9:00:00 PM 6.0861 5.2114
5/16/2023 9:15:00 PM 6.0754 5.0145
5/16/2023 9:30:00 PM 6.0646 4.9979
5/16/2023 9:45:00 PM 6.0585 4.8172
5/16/2023 10:00:00 PM 6.054 4.732
5/16/2023 10:15:00 PM 6.0483 4.6402
5/16/2023 10:30:00 PM 6.0411 4.6881
5/16/2023 10:45:00 PM 6.034 4.7945
5/16/2023 11:00:00 PM 6.0259 4.9106
5/16/2023 11:15:00 PM 6.0172 4.9985
5/16/2023 11:30:00 PM 6.0088 5.0235
5/16/2023 11:45:00 PM 6.0046 5
5/17/2023 12:00:00 AM 5.9938 5.0519
5/17/2023 12:15:00 AM 5.9836 4.8645
5/17/2023 12:30:00 AM 5.9716 4.5819
5/17/2023 12:45:00 AM 5.9627 4.4787
5/17/2023 1:00:00 AM 5.9542 4.5098
5/17/2023 1:15:00 AM 5.9474 4.7039
5/17/2023 1:30:00 AM 5.9415 4.7601
5/17/2023 1:45:00 AM 5.9326 4.796
5/17/2023 2:00:00 AM 5.9219 4.7835
5/17/2023 2:15:00 AM 5.9111 4.7048
5/17/2023 2:30:00 AM 5.9002 4.6836
5/17/2023 2:45:00 AM 5.8954 4.6
5/17/2023 3:00:00 AM 5.8809 4.9495
5/17/2023 3:15:00 AM 5.8713 4.8604
5/17/2023 3:30:00 AM 5.8621 4.6563
5/17/2023 3:45:00 AM 5.8556 4.6896
5/17/2023 4:00:00 AM 5.8465 4.8251
5/17/2023 4:15:00 AM 5.8388 4.9982
5/17/2023 4:30:00 AM 5.8312 4.9606
5/17/2023 4:45:00 AM 5.8247 5.099
5/17/2023 5:00:00 AM 5.8182 5.1098
5/17/2023 5:15:00 AM 5.8135 4.7695
5/17/2023 5:30:00 AM 5.8102 4.7921
5/17/2023 5:45:00 AM 5.8128 4.9
5/17/2023 6:00:00 AM 5.7996 5.1159
5/17/2023 6:15:00 AM 5.7918 4.8352
5/17/2023 6:30:00 AM 5.7866 4.77
5/17/2023 6:45:00 AM 5.7833 4.6783
5/17/2023 7:00:00 AM 5.7823 4.4728
5/17/2023 7:15:00 AM 5.7848 4.5366
5/17/2023 7:30:00 AM 5.7865 4.6084
5/17/2023 7:45:00 AM 5.7914 4.601
5/17/2023 8:00:00 AM 5.7974 4.5958
5/17/2023 8:15:00 AM 5.8054 4.4803
5/17/2023 8:30:00 AM 5.8133 4.6972
5/17/2023 8:45:00 AM 5.8212 4.7
5/17/2023 9:00:00 AM 5.8286 4.762
5/17/2023 9:15:00 AM 5.8377 4.8092
5/17/2023 9:30:00 AM 5.8472 6.0697
5/17/2023 9:45:00 AM 5.8575 4.9023
5/17/2023 10:00:00 AM 5.8662 5.2545
5/17/2023 10:15:00 AM 5.8774 5.6952
5/17/2023 10:30:00 AM 5.8883 6.0469
5/17/2023 10:45:00 AM 5.9008 5.5309
5/17/2023 11:00:00 AM 5.9132 4.4706
5/17/2023 11:15:00 AM 5.9278 4.2464
5/17/2023 11:30:00 AM 5.9418 4.2369
5/17/2023 11:45:00 AM 5.9486 4.2
5/17/2023 12:00:00 PM 5.9658 4.3054
5/17/2023 12:15:00 PM 5.9793 4.2416
5/17/2023 12:30:00 PM 5.993 4.323
5/17/2023 12:45:00 PM 6.0057 4.1986
5/17/2023 1:00:00 PM 6.0182 4.2734
5/17/2023 1:15:00 PM 6.0291 4.235
5/17/2023 1:30:00 PM 6.0421 4.2721
5/17/2023 1:45:00 PM 6.0381 4.6854
5/17/2023 2:00:00 PM 6.0527 4.8197
5/17/2023 2:15:00 PM 6.0748 4.5934
5/17/2023 2:30:00 PM 6.0943 4.5172
5/17/2023 2:45:00 PM 6.1091 4.4485
5/17/2023 3:00:00 PM 6.1219 4.5271
5/17/2023 3:15:00 PM 6.136 4.4765
5/17/2023 3:30:00 PM 6.1495 4.5436
5/17/2023 3:45:00 PM 6.1637 4.6052
5/17/2023 4:00:00 PM 6.1776 4.6963
5/17/2023 4:15:00 PM 6.1911 4.3929
5/17/2023 4:30:00 PM 6.2046 4.181
5/17/2023 4:45:00 PM 6.2173 4.1985
5/17/2023 5:00:00 PM 6.2309 4.9428
5/17/2023 5:15:00 PM 6.2479 5.4838
5/17/2023 5:30:00 PM 6.2628 4.9851
5/17/2023 5:45:00 PM 6.2692 4.7
5/17/2023 6:00:00 PM 6.2905 4.8372
5/17/2023 6:15:00 PM 6.2955 4.948
5/17/2023 6:30:00 PM 6.3001 4.6029
5/17/2023 6:45:00 PM 6.3068 4.7217
5/17/2023 7:00:00 PM 6.3141 4.6387
5/17/2023 7:15:00 PM 6.319 4.5116
5/17/2023 7:30:00 PM 6.3232 4.3473
5/17/2023 7:45:00 PM 6.3237 4.2763
5/17/2023 8:00:00 PM 6.3216 4.2551
5/17/2023 8:15:00 PM 6.3121 4.1769
5/17/2023 8:30:00 PM 6.3028 4.1884
5/17/2023 8:45:00 PM 6.3 4.1
5/17/2023 9:00:00 PM 6.282 4.1966
5/17/2023 9:15:00 PM 6.2689 4.3658
5/17/2023 9:30:00 PM 6.2552 4.3761
5/17/2023 9:45:00 PM 6.2415 4.3389
5/17/2023 10:00:00 PM 6.229 4.5257
5/17/2023 10:15:00 PM 6.2196 4.5409
5/17/2023 10:30:00 PM 6.2061 4.5179
5/17/2023 10:45:00 PM 6.1918 4.6181
5/17/2023 11:00:00 PM 6.1752 4.6527
5/17/2023 11:15:00 PM 6.1581 4.624
5/17/2023 11:30:00 PM 6.1421 4.8799
5/17/2023 11:45:00 PM 6.132 5.7
5/18/2023 12:00:00 AM 6.1149 4.7108
5/18/2023 12:15:00 AM 6.1028 4.647
5/18/2023 12:30:00 AM 6.0904 4.7613
5/18/2023 12:45:00 AM 6.0777 6.1309
5/18/2023 1:00:00 AM 6.065 6.0469
5/18/2023 1:15:00 AM 6.0555 4.6599
5/18/2023 1:30:00 AM 6.0429 4.5674
5/18/2023 1:45:00 AM 6.0291 4.6366
5/18/2023 2:00:00 AM 6.018 4.5857
5/18/2023 2:15:00 AM 6.0045 4.6657
5/18/2023 2:30:00 AM 5.9902 4.9206
5/18/2023 2:45:00 AM 5.9836 4.7999
5/18/2023 3:00:00 AM 5.9679 4.3159
5/18/2023 3:15:00 AM 5.958 4.1453
5/18/2023 3:30:00 AM 5.9482 4.1073
5/18/2023 3:45:00 AM 5.937 4.1201
5/18/2023 4:00:00 AM 5.9265 4.1673
5/18/2023 4:15:00 AM 5.9148 4.1441
5/18/2023 4:30:00 AM 5.9035 4.1319
5/18/2023 4:45:00 AM 5.8929 4.0311
5/18/2023 5:00:00 AM 5.8822 4.1493
5/18/2023 5:15:00 AM 5.8726 4.1327
5/18/2023 5:30:00 AM 5.8655 4.217
5/18/2023 5:45:00 AM 5.859 4.3
5/18/2023 6:00:00 AM 5.8509 4.1743
5/18/2023 6:15:00 AM 5.8445 4.1748
5/18/2023 6:30:00 AM 5.8382 4.1378
5/18/2023 6:45:00 AM 5.8332 4.1477
5/18/2023 7:00:00 AM 5.8293 4.094
5/18/2023 7:15:00 AM 5.8249 4.0508
5/18/2023 7:30:00 AM 5.8222 3.9626
5/18/2023 7:45:00 AM 5.8201 3.9243
5/18/2023 8:00:00 AM 5.8207 3.9717
5/18/2023 8:15:00 AM 5.8242 3.9573
5/18/2023 8:30:00 AM 5.8254 3.9178
5/18/2023 8:45:00 AM 5.831 3.8999
5/18/2023 9:00:00 AM 5.834 3.8858
5/18/2023 9:15:00 AM 5.8376 3.8346
5/18/2023 9:30:00 AM 5.8424 4.4224
5/18/2023 9:45:00 AM 5.8477 4.5524
5/18/2023 10:00:00 AM 5.8536 4.9089
5/18/2023 10:15:00 AM 5.8603 3.9291
5/18/2023 10:30:00 AM 5.8675 3.8594
5/18/2023 10:45:00 AM 5.8753 3.8386
5/18/2023 11:00:00 AM 5.8825 4.0517
5/18/2023 11:15:00 AM 5.8906 4.0957
5/18/2023 11:30:00 AM 5.901 4.3166
5/18/2023 11:45:00 AM 5.9066 4
5/18/2023 12:00:00 PM 5.9229 3.9908
5/18/2023 12:15:00 PM 5.9338 4.1441
5/18/2023 12:30:00 PM 5.9463 4.0236
5/18/2023 12:45:00 PM 5.9548 4.3821
5/18/2023 1:00:00 PM 5.9583 4.4812
5/18/2023 1:15:00 PM 5.9824 4.1551
5/18/2023 1:30:00 PM 6.0015 3.9165
5/18/2023 1:45:00 PM 6.0148 3.8459
5/18/2023 2:00:00 PM 6.0267 3.7776
5/18/2023 2:15:00 PM 6.0411 3.692
5/18/2023 2:30:00 PM 6.0597 3.6597
5/18/2023 2:45:00 PM 6.0814 3.6699
5/18/2023 3:00:00 PM 6.1037 3.6647
5/18/2023 3:15:00 PM 6.125 3.6691
5/18/2023 3:30:00 PM 6.1485 3.6435
5/18/2023 3:45:00 PM 6.1736 3.874
5/18/2023 4:00:00 PM 6.1944 3.8176
5/18/2023 4:15:00 PM 6.2105 3.7443
5/18/2023 4:30:00 PM 6.2243 4.0362
5/18/2023 4:45:00 PM 6.2416 4.8918
5/18/2023 5:00:00 PM 6.2617 4.9547
5/18/2023 5:15:00 PM 6.2796 4.754
5/18/2023 5:30:00 PM 6.2991 4.6024
5/18/2023 5:45:00 PM 6.3098 4.6
5/18/2023 6:00:00 PM 6.3302 4.206
5/18/2023 6:15:00 PM 6.3424 4.1578
5/18/2023 6:30:00 PM 6.3509 4.0738
5/18/2023 6:45:00 PM 6.3575 3.9248
5/18/2023 7:00:00 PM 6.3621 3.9367

These are provisional data and have not been subject to a quality assurance process, but rather are the raw data reported by the instrument.
H: value is above sensor operating range
L: value is below sensor operating range
Offline: station is not reporting data
NC: parameter is not collected at site

Data Availability & Limitations

Uncertainty and potential for error can be associated with environmental monitoring data. Provisional data have not been subject to a quality assurance process, but rather are the raw data reported by the instrument. Data users are cautioned to consider carefully the provisional nature of the information before using it for decisions that concern personal or public safety or the conduct of business that involves substantial monetary or operational consequences.

Approved data are currently available by request by emailing: [email protected]. Approved data have been subject to a quality assurance process to correct for equipment or fouling drift. Data recorded during equipment malfunctions have been removed.

View Historical Stations that have been discontinued.